ECMWFFLT1_925_thetae_057.txt.gz
Theta_e
334 333 332 332 331 330 331 332 332 331 332 332 331 332 332 331 330 330 329 329 329 329 329 329 328 329 330 329 329 330 330 329 329 329 328 328 329 329 328 328 328 327 329 330 330 330 330 329 327 327 327 327 328 328 328 327 328 327 326 325 326 326 325
333 332 332 331 331 330 331 332 331 331 331 331 331 332 331 330 330 329 329 329 329 329 329 329 328 328 328 328 329 330 330 329 329 329 329 328 329 330 329 329 329 329 330 330 330 330 330 328 327 327 327 327 327 328 328 328 328 327 326 325 326 326 325
332 331 331 331 331 331 331 332 331 330 330 331 332 331 330 330 330 329 329 330 329 329 329 329 328 328 329 330 330 330 330 330 329 329 329 329 329 330 330 329 329 330 330 329 329 329 330 330 328 327 327 327 327 328 328 328 327 327 326 326 325 325 325
332 331 331 331 331 331 331 331 331 331 331 331 331 330 330 329 329 329 329 330 329 330 330 330 330 329 329 330 331 331 330 329 329 329 329 329 329 329 330 329 330 330 330 330 330 329 330 330 329 328 328 328 328 328 327 327 327 326 326 326 325 325 325
332 332 331 330 330 330 331 331 330 331 331 331 331 331 329 329 329 329 330 330 330 330 331 331 331 330 329 330 331 331 330 328 329 329 328 329 329 329 329 330 330 331 330 330 330 330 331 330 329 328 328 328 328 328 327 326 327 326 326 325 325 325 324
331 331 330 329 329 330 330 330 330 330 331 331 332 331 329 329 329 329 330 331 331 331 331 330 331 331 329 329 331 332 331 329 329 329 329 329 329 328 329 330 330 330 330 330 330 330 331 330 329 329 329 329 329 328 327 326 326 326 325 325 324 324 324
330 329 329 328 328 329 330 329 329 330 331 331 331 331 330 329 329 329 330 331 330 330 330 330 331 330 328 328 331 332 331 331 330 330 329 329 329 329 329 330 330 330 330 329 328 329 330 329 329 330 328 328 328 327 326 325 325 325 325 324 323 323 323
328 328 328 327 327 328 330 330 330 330 330 330 331 331 331 330 330 330 330 330 330 329 330 329 330 330 329 329 331 331 331 331 330 330 330 330 329 329 329 330 330 330 330 329 328 328 329 329 329 329 328 327 326 327 326 325 324 325 325 324 323 324 324
327 327 327 327 327 328 329 329 330 330 330 330 330 330 330 330 330 330 330 330 330 330 330 329 329 330 330 330 331 331 331 330 330 330 330 330 330 329 329 329 329 329 330 329 328 328 328 329 329 328 328 327 327 326 325 324 325 325 325 324 323 323 323
326 327 327 327 327 327 327 327 328 330 330 330 330 330 330 329 329 329 329 330 330 330 331 330 330 330 331 330 330 330 330 330 330 330 330 330 330 329 329 329 328 328 329 329 328 328 328 328 328 328 328 328 328 327 325 324 325 326 326 325 323 323 322
327 327 327 327 327 327 327 327 328 329 330 330 330 329 329 329 328 329 329 329 330 331 331 330 330 331 331 330 329 330 330 330 330 330 330 330 330 329 329 329 329 329 330 329 329 329 328 327 328 328 328 328 328 328 326 325 326 326 326 325 323 323 322
327 327 327 327 327 328 327 327 328 329 330 330 329 329 329 329 329 329 329 330 330 331 331 330 330 330 330 329 328 329 330 330 329 329 329 329 330 329 329 329 329 329 330 330 329 329 328 326 327 327 327 328 328 327 328 326 325 326 326 324 323 323 321
326 326 326 327 327 327 328 328 329 329 329 329 329 329 329 329 329 329 330 330 331 331 330 330 330 330 329 328 328 330 330 329 329 329 329 329 329 329 329 329 329 329 329 329 330 329 327 326 327 327 327 328 327 327 328 326 325 326 325 324 323 322 321
326 326 326 326 326 326 327 328 328 328 329 329 329 329 329 329 329 330 330 331 331 331 330 330 331 330 329 329 328 329 329 329 329 329 329 329 329 329 329 330 330 329 329 329 330 328 327 327 326 326 326 326 326 326 326 326 324 324 323 323 323 321 320
326 326 326 326 325 326 326 327 328 328 329 329 329 329 329 329 330 330 330 331 331 330 330 330 331 330 329 329 329 329 329 329 329 329 329 329 329 329 329 329 330 329 329 329 329 328 327 327 325 325 325 325 325 325 324 324 324 323 322 321 321 321 320
324 326 326 326 325 325 326 327 327 328 329 329 329 329 329 330 330 330 330 330 331 330 330 330 330 330 329 329 329 329 329 329 329 329 329 329 329 329 329 329 329 329 328 329 329 328 328 327 325 325 324 323 323 323 323 323 323 322 322 320 319 320 320
321 323 325 326 326 325 326 327 327 327 328 329 329 329 329 330 330 330 330 330 330 330 330 330 330 331 330 329 329 329 328 329 329 329 329 329 329 329 328 329 329 329 328 328 329 328 328 327 326 324 324 323 322 322 321 321 321 321 321 319 318 318 318
317 320 323 324 325 325 325 325 325 325 327 328 329 329 329 330 330 330 330 330 330 330 330 330 330 331 330 330 329 328 328 329 329 329 329 329 329 329 329 329 329 329 329 329 329 329 328 328 326 325 324 323 322 321 320 320 320 320 320 319 318 315 315
315 318 321 323 324 325 324 324 325 325 326 327 328 328 328 329 329 330 330 331 331 331 331 330 330 330 330 330 329 328 329 329 329 329 329 328 328 328 329 329 329 329 329 329 329 329 329 328 327 326 326 324 323 321 320 319 319 318 318 319 318 315 313
312 315 319 321 323 324 324 324 324 325 326 328 327 327 327 328 329 329 330 331 331 331 330 330 330 329 329 330 330 329 328 328 328 328 328 328 328 328 328 328 329 329 328 329 329 329 329 328 327 327 327 326 324 322 321 319 317 317 317 318 317 315 314
310 312 316 320 322 323 324 324 325 325 325 327 327 326 326 327 327 328 330 331 331 331 330 329 329 329 328 329 329 329 328 328 327 327 327 327 327 327 328 327 328 328 328 329 329 329 329 328 328 328 327 327 326 324 322 320 317 316 316 316 316 316 315
309 310 314 318 320 322 323 324 325 325 325 326 326 326 325 325 326 327 329 330 330 330 330 329 329 329 328 328 328 328 327 327 327 326 326 326 326 327 327 327 327 327 328 328 328 329 329 327 328 328 328 327 326 326 325 321 318 317 317 316 316 316 315
307 308 311 315 318 320 322 323 324 324 325 325 325 325 324 324 325 326 328 329 330 330 329 329 328 328 328 328 327 328 327 327 327 326 326 326 326 326 327 327 327 327 327 327 328 329 329 327 327 328 328 327 326 327 326 322 318 318 318 317 316 316 316
306 307 308 311 315 317 320 323 323 324 324 325 325 324 324 323 324 325 327 328 329 328 328 328 327 328 328 328 327 328 328 327 327 327 327 326 326 326 327 327 327 327 327 327 327 328 328 328 328 328 328 327 327 327 326 323 321 321 321 320 319 318 317
305 305 306 308 310 313 316 319 321 322 323 323 323 324 323 322 322 324 325 326 327 327 327 327 327 327 327 327 327 327 327 327 327 327 327 327 326 326 326 327 326 326 326 326 327 327 327 328 328 328 328 328 327 326 325 324 323 323 322 322 322 320 320
304 304 304 305 307 310 312 314 315 317 318 320 320 321 321 321 321 322 323 324 325 325 325 326 326 327 326 326 326 327 326 327 327 327 327 327 327 326 326 326 325 325 326 326 327 327 327 327 327 328 328 327 326 326 325 323 322 322 321 321 322 321 320
303 303 303 303 304 305 307 309 310 311 313 314 314 314 315 316 317 318 320 321 323 323 324 325 326 326 326 326 326 326 325 325 325 326 327 327 326 326 326 325 325 325 325 326 326 326 326 326 326 326 324 323 323 322 322 320 319 319 319 320 321 320 320
303 303 302 302 302 302 303 305 306 307 307 308 308 308 308 310 311 313 315 316 319 320 321 322 324 325 325 325 326 326 324 323 323 324 325 326 326 326 326 326 326 326 326 326 326 326 325 324 321 319 318 316 316 316 316 317 318 317 316 316 317 317 316
302 302 302 302 302 302 302 302 303 304 305 305 305 305 306 306 307 308 310 311 313 316 318 320 321 323 324 325 325 324 323 322 322 323 324 325 326 326 326 325 326 326 327 327 326 324 323 320 317 314 313 311 310 311 311 311 314 314 312 312 313 312 312
302 302 302 302 302 302 301 301 302 303 304 304 304 304 304 303 304 305 307 308 310 311 314 317 319 320 321 323 323 322 321 321 321 322 323 324 325 325 325 325 325 325 325 326 323 320 318 317 314 311 310 308 307 307 306 306 308 309 308 308 308 307 308
302 302 302 302 302 301 301 301 301 301 302 302 302 303 303 303 303 303 303 304 306 308 310 313 316 318 318 320 321 320 320 320 320 320 320 321 322 322 323 324 323 322 323 322 320 316 315 314 312 310 309 308 307 305 303 304 306 306 306 306 307 307 307
302 302 302 302 302 302 301 301 301 301 301 301 301 301 302 302 302 302 302 302 302 304 305 307 311 315 316 317 318 318 319 319 318 317 316 316 317 317 318 319 319 319 319 318 315 313 312 312 312 311 312 311 308 304 303 305 305 305 305 306 308 309 307
302 302 302 302 302 302 301 301 301 300 300 300 300 300 300 300 300 300 301 301 301 301 301 302 306 310 313 314 315 316 317 318 316 313 311 311 311 311 311 312 313 315 315 313 311 310 310 311 312 312 312 311 309 306 304 305 305 306 305 305 305 306 305
301 301 301 301 301 301 301 301 300 300 300 300 300 299 298 298 298 298 299 300 300 301 300 299 301 306 309 310 311 312 313 314 314 311 307 306 306 305 306 307 308 310 311 309 309 310 310 310 311 311 311 311 309 307 305 304 304 304 304 303 302 302 301
301 301 301 301 301 301 300 300 300 300 300 299 299 299 298 298 298 298 298 298 299 300 300 299 300 303 305 306 306 307 307 307 309 310 307 304 302 302 302 302 303 306 308 307 307 308 309 309 309 310 309 308 307 305 304 303 303 302 301 301 300 300 300
301 300 301 301 301 301 300 300 300 299 300 299 299 298 298 298 297 298 298 298 298 298 299 299 300 301 302 303 303 304 303 303 304 307 305 302 301 300 300 300 300 302 304 305 305 305 306 306 306 306 305 304 303 303 302 302 301 301 300 300 299 299 299
300 300 300 300 300 300 300 300 300 299 299 299 299 298 298 298 297 297 298 298 298 298 298 298 299 300 301 301 301 302 302 301 302 303 302 301 301 301 301 301 301 301 302 302 303 303 303 303 303 302 302 301 301 301 301 300 300 300 299 299 298 297 297

ECMWFFLT1_925_thetae_060.txt.gz
Theta_e
337 337 336 335 335 335 335 335 335 334 334 334 334 334 334 333 333 333 333 333 332 332 331 331 331 330 330 331 331 330 329 330 330 329 329 329 330 330 330 330 329 329 331 331 331 331 331 331 330 329 329 330 329 329 329 329 329 329 328 327 328 327 327
336 335 335 335 335 334 335 334 334 334 334 334 334 334 334 333 333 333 332 332 331 331 331 331 331 330 329 330 330 330 330 330 330 329 329 329 330 330 330 330 329 330 330 329 330 331 331 332 330 329 329 330 329 329 329 329 330 329 328 327 328 328 327
335 335 335 335 335 334 334 334 334 334 334 333 333 334 334 333 332 332 332 332 331 331 331 331 331 330 329 330 330 330 330 330 330 330 329 330 330 329 329 329 330 331 330 329 330 330 329 330 330 330 331 330 330 329 329 329 329 330 329 328 327 328 327
334 334 334 335 335 335 334 333 333 333 333 333 333 333 333 333 332 332 332 332 331 330 331 332 332 331 331 331 331 330 330 330 330 330 330 330 329 329 329 330 332 332 330 330 331 331 331 330 330 331 331 330 330 329 329 329 330 329 329 328 328 327 327
334 334 334 335 335 335 334 333 333 333 333 333 333 333 333 333 332 331 331 331 331 331 331 331 331 331 331 332 332 331 331 331 330 331 331 331 330 330 330 331 332 331 329 330 331 331 332 331 330 331 330 329 330 330 329 330 330 329 329 329 328 327 326
333 333 333 334 334 333 333 333 333 332 333 334 333 333 333 333 332 331 331 331 331 331 331 331 331 331 331 332 332 331 331 331 331 331 332 332 332 332 331 330 331 331 330 330 329 330 330 329 330 331 330 329 331 331 330 330 329 329 329 329 327 326 325
331 331 332 332 333 332 331 332 332 333 333 333 333 333 333 333 332 331 332 332 331 331 331 332 332 331 331 331 331 331 330 330 331 331 332 332 332 332 332 331 330 330 331 330 329 329 329 328 329 331 330 329 330 329 329 330 329 328 328 328 326 325 324
329 329 330 330 330 331 331 331 332 332 333 333 333 333 333 333 332 332 332 332 332 332 332 333 332 331 331 331 332 332 330 330 330 330 331 331 331 332 333 332 331 331 331 330 329 329 329 329 329 330 329 330 330 328 329 329 328 328 327 326 325 323 323
329 329 329 330 329 330 330 330 331 332 332 332 332 332 333 333 333 332 332 333 333 333 333 332 331 331 331 331 332 331 331 330 330 330 330 330 331 332 333 332 330 330 330 329 329 330 330 329 328 328 329 329 330 330 329 328 327 327 325 325 325 323 324
328 329 330 330 330 330 330 330 330 331 331 332 332 332 332 333 333 333 332 332 333 333 333 331 330 331 331 331 331 331 331 331 331 331 330 330 332 332 333 331 330 330 330 330 331 332 331 329 329 329 329 329 329 330 330 328 328 327 326 326 325 324 324
326 328 329 329 330 330 330 330 329 330 330 331 332 332 332 332 333 333 332 332 332 333 332 331 331 331 331 331 331 331 331 331 331 332 332 331 332 331 331 331 330 330 331 331 332 332 332 330 330 329 328 329 328 329 329 329 328 327 326 326 325 324 324
323 326 328 329 329 329 330 330 329 330 330 331 332 332 332 331 332 332 331 331 332 333 332 331 331 331 331 332 332 332 332 332 332 333 332 332 331 331 330 331 331 331 331 331 331 332 332 331 329 328 328 329 328 328 329 329 330 328 326 327 324 324 324
321 323 327 328 329 329 329 329 329 330 330 330 331 332 331 331 331 331 331 331 332 332 333 332 331 331 331 332 332 332 332 332 332 332 332 332 332 331 331 332 331 331 331 331 330 330 331 331 330 329 328 328 328 329 329 329 329 328 326 327 325 324 324
318 321 324 326 329 329 329 329 329 329 330 330 331 331 331 331 330 331 330 331 332 332 333 333 331 331 331 331 332 332 332 332 332 332 332 332 332 331 332 332 332 332 332 331 329 329 330 331 331 330 328 327 328 330 330 329 329 327 326 327 325 324 323
316 318 321 324 327 328 328 328 328 328 329 329 330 331 331 330 330 330 331 331 332 332 332 332 331 331 331 331 332 332 332 333 332 332 332 332 332 332 332 332 332 332 332 331 330 330 331 332 331 329 328 327 328 329 330 329 328 328 327 326 325 324 324
314 316 318 321 324 326 327 328 328 328 328 328 329 329 330 331 330 330 331 331 330 330 331 332 331 332 332 332 332 332 332 333 332 332 332 332 332 331 332 332 332 332 332 332 331 330 331 331 330 328 327 328 329 329 330 329 329 328 327 325 324 324 324
313 314 316 318 321 324 326 327 328 327 326 327 328 328 329 330 330 330 331 331 330 330 331 332 332 332 332 332 332 332 332 332 332 332 332 331 332 331 332 332 332 332 332 332 332 331 330 330 329 328 327 328 329 330 329 329 328 327 325 323 322 322 322
312 312 313 315 318 322 325 327 327 326 325 324 325 327 328 329 330 330 330 329 329 330 331 332 332 332 332 332 332 332 332 332 332 332 332 331 331 331 332 332 332 332 332 332 332 331 330 330 329 328 328 328 328 329 328 327 326 325 325 323 321 320 319
311 311 312 313 315 319 324 326 326 325 324 323 324 326 328 329 329 329 329 329 328 329 331 332 332 332 332 332 332 332 332 332 332 331 332 331 331 331 331 331 332 332 332 332 332 332 331 330 330 329 328 328 328 329 328 326 325 324 325 323 320 318 318
311 311 311 312 314 317 322 325 325 324 324 324 325 327 327 328 329 329 329 329 329 330 332 333 333 332 332 332 331 331 332 331 331 331 332 332 331 331 331 331 331 331 331 332 331 331 331 331 330 330 329 329 329 328 327 325 325 325 324 323 320 319 318
310 310 310 310 312 314 318 323 324 324 324 324 325 326 326 327 328 329 329 330 329 330 330 331 332 332 332 331 331 331 332 331 331 331 331 331 331 331 331 331 331 331 331 331 331 331 331 331 331 331 330 329 328 327 326 325 324 323 323 323 322 320 319
310 310 309 309 310 311 314 319 322 323 324 324 324 324 325 327 327 328 329 329 328 328 328 329 332 332 331 331 330 330 331 331 331 331 330 330 330 330 330 331 331 331 331 331 331 330 331 331 331 332 332 329 328 327 325 324 324 322 322 323 321 320 319
309 309 309 308 308 308 310 314 318 320 322 324 323 323 324 325 326 327 329 329 328 328 327 329 331 331 330 330 329 330 330 330 330 330 330 330 330 329 330 330 330 330 329 329 329 329 330 330 330 331 331 329 328 327 325 324 324 322 321 322 323 322 321
308 308 308 308 308 307 307 309 312 315 318 320 321 322 323 324 325 326 327 328 328 328 329 330 331 330 329 329 330 330 330 329 329 329 329 329 329 329 329 330 330 329 328 328 328 328 329 329 329 329 329 328 328 328 326 324 324 322 321 323 324 323 322
308 307 307 307 307 306 306 306 307 309 312 314 316 318 319 320 322 324 325 325 326 326 327 329 330 330 329 328 329 329 330 330 329 329 329 329 329 329 329 330 330 330 329 328 328 328 327 328 328 328 328 327 327 328 327 325 324 324 324 324 324 324 322
307 307 307 306 306 306 305 305 305 306 307 308 311 312 313 315 317 318 319 321 322 323 323 324 326 328 328 328 328 328 329 329 330 329 330 330 329 329 329 330 330 330 329 328 328 328 327 327 327 327 327 327 327 328 327 326 326 326 326 325 325 325 324
307 307 306 306 306 305 305 304 304 305 305 305 306 308 309 310 311 312 314 316 318 319 320 321 322 325 327 328 328 327 327 328 329 329 330 330 330 330 330 330 330 330 329 327 327 328 327 326 325 325 326 325 324 324 325 326 325 325 325 327 328 327 326
306 306 306 306 305 305 305 304 304 304 304 304 304 305 306 307 308 309 310 311 313 313 314 317 319 322 324 325 326 326 326 327 328 328 329 330 330 330 330 330 330 329 328 327 327 327 327 325 324 324 323 320 319 321 323 324 323 322 322 322 324 324 323
306 306 305 305 305 305 305 304 303 303 303 303 303 303 303 304 304 305 307 308 310 310 310 312 315 318 320 322 323 323 324 326 327 327 328 329 329 330 329 329 329 329 328 327 326 326 325 324 324 322 320 317 317 319 320 320 321 320 319 318 319 320 320
305 305 305 305 305 305 304 304 304 303 303 303 302 302 302 302 302 303 303 304 306 308 308 310 312 314 316 318 319 320 322 324 326 326 327 327 327 328 328 329 329 329 329 327 326 325 323 322 321 320 317 315 314 313 313 314 315 315 315 316 316 316 317
304 304 305 305 304 304 304 304 304 303 303 303 302 301 301 301 301 301 301 301 302 304 305 307 309 312 314 315 317 318 320 323 324 325 325 325 324 324 325 327 327 328 328 325 325 325 323 321 320 318 316 314 312 310 308 308 309 309 310 311 311 312 313
303 304 304 304 304 304 304 304 304 303 303 303 302 302 301 301 300 300 300 300 300 301 302 304 306 309 311 313 314 314 317 321 323 322 321 321 320 318 319 323 325 325 325 324 323 322 320 319 319 317 315 314 312 309 307 306 307 307 307 307 307 309 310
303 303 303 303 304 304 303 303 303 303 303 303 303 302 302 301 301 300 300 300 299 299 299 300 302 305 307 310 311 310 312 315 317 318 317 318 317 315 314 317 320 320 320 320 320 318 315 316 318 316 315 314 312 310 309 308 308 308 307 306 306 307 308
302 302 302 303 303 303 303 303 303 303 303 303 302 302 302 302 302 301 300 300 299 298 298 298 300 302 304 306 308 308 309 310 311 311 311 311 311 310 309 310 314 316 316 315 314 313 313 315 316 316 316 315 312 310 309 308 307 307 306 306 306 306 305
302 302 301 301 302 302 302 302 302 302 302 302 302 302 302 302 302 301 301 300 299 299 298 298 299 300 301 303 305 305 307 308 308 308 307 306 305 304 304 305 308 310 311 309 308 309 311 314 315 315 315 313 310 308 308 307 307 307 307 306 306 305 304
302 301 301 301 301 301 301 301 301 301 301 301 301 301 301 301 301 301 301 300 300 299 298 298 298 299 300 301 302 303 304 305 306 307 307 304 302 300 300 301 303 304 305 305 305 307 309 311 312 312 311 309 307 306 307 307 307 307 307 306 306 305 304
301 301 301 301 300 300 300 300 300 300 300 300 300 300 300 300 300 300 300 300 300 299 299 298 297 298 299 300 301 301 302 302 304 306 304 302 300 299 299 299 301 302 304 304 305 306 307 307 307 307 306 306 305 305 305 305 305 305 304 304 303 302 302

ECMWFFLT1_925_thetae_063.txt.gz
Theta_e
333 334 336 337 337 337 338 338 338 337 338 337 337 337 336 336 336 336 336 336 335 336 336 336 335 335 334 334 333 332 332 331 330 331 331 331 332 332 332 332 331 331 331 331 331 332 333 333 331 330 330 330 330 330 330 330 328 329 330 329 329 329 328
332 335 338 335 334 336 337 336 337 337 337 337 337 336 336 336 336 336 336 336 335 334 335 335 334 334 334 333 333 332 331 331 331 331 330 331 332 333 333 332 332 332 331 330 330 329 330 332 332 331 330 330 330 331 330 330 329 330 330 329 329 328 328
334 337 338 335 334 335 336 336 337 337 337 337 337 337 336 337 337 336 336 336 335 334 334 333 332 333 333 333 332 332 332 331 331 331 329 330 332 334 333 331 332 332 330 330 331 329 330 331 331 331 331 330 331 331 330 329 329 330 330 328 328 328 328
336 337 338 337 335 334 335 336 337 336 335 336 337 337 337 337 337 336 336 335 335 334 333 333 333 333 333 333 333 332 332 331 331 330 329 330 333 333 330 330 332 332 331 331 331 331 331 331 330 331 330 330 331 331 331 331 330 330 329 328 328 328 328
335 336 336 336 335 334 333 334 336 336 334 334 336 337 337 337 337 336 336 335 334 333 333 333 333 333 333 333 333 332 332 331 331 331 330 331 332 331 330 330 332 332 331 330 331 332 331 331 330 331 331 330 330 331 331 331 331 329 328 328 329 329 328
333 333 334 334 334 334 334 334 336 336 334 333 334 336 337 336 336 336 335 335 334 332 332 333 333 334 333 332 332 332 332 331 331 331 332 331 330 330 331 332 331 330 330 330 331 332 331 329 329 331 331 330 330 331 330 331 331 330 329 328 328 328 327
331 332 333 333 333 334 334 334 335 334 335 333 331 334 336 335 335 335 334 334 334 333 333 333 333 334 334 332 332 332 332 332 331 330 331 331 330 330 332 333 332 331 330 331 331 332 330 329 329 331 331 330 330 330 329 330 331 331 329 328 328 328 327
329 330 331 332 332 332 332 333 333 333 334 334 333 334 335 335 336 336 334 334 335 334 333 334 334 333 334 333 332 333 332 332 331 330 331 331 331 331 332 332 332 331 331 331 331 332 331 330 331 332 332 331 331 330 330 330 331 331 329 328 329 328 327
326 328 329 331 332 332 332 332 333 333 333 334 334 335 334 334 335 335 335 335 335 334 333 334 334 333 334 334 333 333 333 332 332 331 332 333 332 331 331 332 332 331 331 331 332 333 333 332 332 332 331 331 331 331 331 330 330 330 329 328 328 327 327
325 326 327 328 330 331 332 332 332 332 333 333 334 335 334 333 332 333 334 334 333 333 334 334 334 333 334 333 333 333 333 333 332 332 332 333 333 332 331 332 332 331 331 332 333 333 332 331 331 331 331 331 330 330 331 331 330 330 329 329 328 326 326
324 324 325 326 328 330 331 332 332 332 332 332 333 333 333 332 332 333 333 333 332 333 334 334 333 333 333 333 333 334 334 333 332 332 332 332 332 332 332 331 331 331 332 333 333 332 331 330 330 331 331 331 331 330 331 331 330 330 328 328 327 326 326
322 322 323 324 326 328 330 331 332 331 332 332 332 332 332 332 331 331 332 333 332 331 333 334 333 332 333 333 333 333 334 333 333 333 332 331 332 332 331 331 331 332 333 332 331 330 330 330 330 331 330 331 332 331 331 331 331 329 327 327 327 325 326
320 320 321 322 324 326 328 330 331 331 331 331 332 331 331 331 331 331 331 332 331 331 333 333 332 332 332 332 332 332 333 333 333 333 333 332 332 331 331 331 332 333 332 332 331 330 330 331 331 331 330 331 331 330 329 330 330 329 327 328 327 325 326
318 318 319 320 322 324 326 328 329 330 331 331 331 331 331 331 331 330 330 331 331 331 333 333 332 332 332 331 331 331 332 333 333 332 332 332 332 332 331 331 332 333 331 332 332 331 331 331 332 332 332 332 331 329 329 329 330 329 328 327 326 326 326
317 317 317 318 319 321 322 324 326 328 330 330 330 330 330 330 330 330 330 330 330 331 332 332 331 331 331 331 330 331 332 333 332 332 332 332 332 332 332 333 333 331 331 332 332 331 332 332 332 333 332 332 331 330 329 329 330 330 328 327 326 325 325
316 316 316 316 317 318 319 321 324 327 329 329 330 329 328 328 328 329 329 329 329 331 331 331 330 331 331 330 330 331 333 333 333 332 332 332 332 332 333 333 333 331 331 332 331 331 332 332 331 331 331 330 331 331 330 328 328 329 329 329 327 325 325
315 315 315 315 315 315 317 319 321 324 327 328 328 328 328 326 326 327 329 329 330 331 331 330 331 330 330 330 330 332 332 332 332 332 332 332 332 332 332 331 331 331 331 332 331 332 332 332 331 331 331 330 330 331 330 327 327 328 328 328 327 325 326
314 314 314 314 314 313 314 316 318 321 325 328 328 327 327 326 325 326 328 329 329 329 329 330 330 329 329 330 330 329 331 332 333 333 333 332 332 331 331 331 330 330 331 331 332 331 331 331 331 330 330 331 331 331 329 327 327 327 327 328 325 324 326
313 313 313 313 313 312 312 313 315 318 321 325 326 326 325 325 325 326 328 329 329 329 329 330 330 328 328 329 329 329 330 331 332 333 333 332 332 331 331 331 330 329 329 330 331 331 331 331 331 331 330 330 330 330 328 328 327 326 327 327 324 323 325
312 312 313 312 312 312 311 311 313 315 317 320 322 323 323 325 326 327 328 329 329 329 329 330 329 328 328 328 329 330 329 327 330 333 333 333 332 332 332 332 331 330 329 329 329 330 330 331 331 331 330 330 330 330 328 327 326 326 326 327 325 322 323
312 312 312 312 311 311 310 309 310 312 314 316 317 319 320 322 324 327 328 328 329 328 328 329 328 328 328 328 329 329 327 327 331 333 333 333 333 332 331 331 331 331 331 330 329 330 330 330 330 329 329 329 329 328 328 327 326 326 326 326 326 322 320
311 311 311 311 311 310 310 308 308 309 310 311 313 315 317 318 320 324 326 326 327 327 327 327 327 326 327 328 328 328 328 330 333 333 332 333 332 331 331 331 332 331 331 331 331 331 331 329 330 330 329 328 327 327 329 329 327 326 326 326 326 324 320
311 310 310 310 310 310 309 308 308 307 308 309 309 311 313 314 315 318 322 324 326 326 326 325 326 326 326 327 328 328 327 329 331 331 332 332 332 331 331 332 333 332 331 331 331 331 330 330 330 330 329 328 327 328 329 329 327 326 326 326 326 325 321
310 310 310 309 309 309 309 308 307 307 307 307 307 308 309 310 310 312 317 321 323 324 323 323 324 325 326 326 327 327 327 327 328 330 332 332 332 332 332 332 333 332 331 331 331 330 331 331 330 330 330 329 328 328 328 328 327 325 325 326 326 325 322
309 309 309 309 309 308 308 308 307 306 306 306 306 306 307 307 307 308 311 315 317 318 318 319 321 322 324 325 325 327 327 327 327 329 330 331 330 331 331 331 332 332 331 331 331 331 330 330 330 330 329 329 329 329 328 327 326 325 326 326 324 324 324
308 308 308 308 308 308 307 307 307 306 306 305 304 305 305 306 305 305 307 309 311 312 312 314 316 317 320 322 325 327 328 327 327 328 328 328 329 330 331 331 331 332 331 330 330 330 330 329 329 329 329 329 329 328 328 327 326 326 327 326 325 324 325
307 307 307 307 307 307 307 307 306 306 306 305 304 303 304 304 304 304 304 304 306 307 308 309 311 313 315 318 321 325 327 328 327 328 327 327 327 329 330 331 331 331 331 330 329 330 330 329 328 327 327 327 327 328 328 327 326 326 326 327 327 327 326
306 306 306 306 307 306 306 306 306 306 306 305 305 304 303 303 303 302 302 302 302 304 304 305 307 310 313 316 319 322 324 326 327 328 328 326 327 328 329 330 331 331 331 330 329 329 329 328 327 326 327 327 326 326 326 325 325 325 326 327 328 326 325
305 306 306 306 306 306 306 306 306 305 306 306 305 304 304 303 302 302 302 301 300 301 301 301 304 307 310 313 316 318 320 321 324 327 328 327 326 326 327 328 330 330 329 328 329 329 328 328 327 327 327 326 323 322 323 323 324 325 325 325 325 325 325
305 305 305 305 305 305 305 305 305 305 305 305 305 305 304 304 303 302 301 300 300 299 299 299 301 304 307 309 312 314 316 318 322 325 327 326 325 325 326 327 327 327 327 327 328 328 328 327 326 326 326 324 320 319 320 321 322 323 324 324 324 324 325
304 304 304 304 304 304 304 305 305 305 305 305 305 305 305 304 304 303 302 301 300 299 298 298 300 302 304 306 309 311 312 314 318 322 325 326 325 324 324 325 326 326 326 326 327 327 327 327 326 325 325 323 320 317 315 315 317 319 320 321 321 321 320
304 304 304 304 303 304 304 304 304 304 304 304 304 304 304 304 304 303 302 301 300 299 298 297 298 300 302 304 306 309 310 312 314 317 321 324 325 323 320 322 325 325 325 326 327 327 326 325 325 324 323 322 320 316 313 312 313 314 314 315 314 314 314
303 303 303 303 303 303 303 303 303 303 303 303 303 303 303 303 303 303 303 302 301 300 298 297 297 298 301 302 304 306 307 309 311 313 315 318 318 315 314 316 319 321 322 324 325 325 326 324 323 323 322 321 319 315 312 312 312 312 312 312 311 311 310
302 302 302 302 302 302 302 302 302 303 303 302 302 302 302 302 302 302 302 302 301 300 299 298 297 297 298 300 302 303 304 305 307 308 310 311 311 309 310 312 313 313 316 319 321 323 324 323 321 321 322 320 317 314 313 312 311 312 312 311 310 310 309
302 302 302 302 302 301 301 302 302 302 302 302 302 302 301 301 301 301 301 301 301 300 300 299 297 296 296 297 299 301 302 303 304 306 307 307 306 306 307 309 309 308 309 312 315 316 317 318 318 319 319 317 314 312 312 312 311 312 311 311 310 309 309
301 301 301 301 301 301 301 300 301 301 301 301 301 301 301 301 300 300 300 300 300 300 299 298 298 297 296 296 296 297 298 300 301 303 303 302 300 300 301 304 305 305 306 308 309 311 312 314 314 314 314 314 312 311 312 312 312 312 312 311 310 309 308
301 301 301 300 300 301 300 299 299 300 300 300 301 301 300 300 300 300 299 299 299 299 298 297 297 297 297 296 296 296 296 297 297 298 298 297 297 296 297 300 302 303 304 306 307 308 308 309 309 309 310 310 310 311 312 312 312 311 310 310 309 308 307

ECMWFFLT1_925_thetae_069.txt.gz
Theta_e
334 334 334 334 335 335 335 335 335 336 336 337 336 336 336 336 336 335 335 335 335 333 333 334 333 333 334 334 334 334 333 333 332 330 331 332 333 333 332 331 330 330 330 330 331 332 334 334 332 332 333 333 333 331 331 331 330 330 330 329 329 328 329
330 331 332 332 333 334 334 335 334 335 335 335 336 336 335 335 336 336 335 335 334 333 333 333 333 333 333 333 333 334 333 331 330 330 330 332 333 332 331 331 330 330 329 330 329 328 331 334 333 332 332 333 332 331 331 331 331 331 330 329 328 328 330
327 328 328 329 330 331 332 333 333 334 334 334 334 334 334 334 335 335 335 335 335 334 334 333 333 332 332 332 332 333 332 331 330 330 331 332 331 331 331 330 329 329 329 329 329 329 330 332 333 332 331 332 332 331 331 331 331 331 330 329 328 328 329
326 326 327 328 328 328 329 329 331 332 333 333 333 333 334 334 334 335 335 335 335 335 335 333 333 332 331 331 331 332 332 332 331 330 330 331 330 330 331 330 329 329 329 329 329 330 330 330 332 333 331 331 331 330 331 330 330 331 331 329 328 329 329
324 325 326 327 327 327 327 326 328 329 331 332 332 333 333 333 333 333 334 334 334 334 334 333 333 333 331 329 330 331 331 332 332 331 330 331 331 329 330 331 330 330 330 330 329 330 330 330 331 332 331 331 331 330 330 330 331 331 331 329 328 329 328
323 323 324 325 324 324 324 325 326 327 329 330 331 332 333 333 332 333 333 334 334 334 334 333 333 333 332 330 330 330 330 331 331 331 331 333 333 331 330 331 330 330 330 330 330 330 330 329 329 330 331 331 331 331 330 331 331 331 331 329 328 329 328
321 321 322 322 321 321 322 324 325 326 326 327 329 330 331 331 332 332 333 333 333 333 334 334 333 333 332 331 331 330 330 330 330 330 331 332 333 332 331 330 329 330 331 331 330 329 329 329 329 329 330 331 330 330 330 331 331 331 331 329 329 328 328
319 320 320 319 319 320 321 322 322 323 324 325 326 327 328 330 331 331 332 332 332 333 333 333 332 332 332 332 332 330 329 329 329 330 331 332 332 331 331 330 329 329 330 331 330 330 330 330 330 329 330 330 330 330 330 330 330 330 331 330 329 328 328
318 318 318 318 318 319 319 319 320 321 322 323 324 325 326 328 329 330 330 330 331 331 331 332 332 331 331 331 331 330 329 328 329 330 331 331 331 331 331 331 330 329 330 330 330 330 331 330 330 330 330 330 330 330 330 330 329 329 330 330 330 329 328
316 316 316 317 317 317 317 317 318 319 321 321 322 323 325 327 328 329 329 329 329 328 329 329 329 329 329 329 330 330 329 328 328 329 329 330 331 331 331 330 329 329 330 330 330 330 331 331 330 331 330 329 329 329 330 331 330 328 330 331 330 329 328
314 315 315 316 316 316 315 315 315 317 318 320 321 322 323 324 325 326 326 326 326 325 326 327 327 327 328 328 329 330 330 329 328 328 328 329 330 331 331 330 329 329 330 330 330 330 330 331 331 331 331 330 329 328 328 330 330 328 328 330 331 330 329
314 314 314 314 314 314 314 313 313 315 316 318 319 320 320 320 320 322 324 324 324 325 325 326 326 327 326 327 329 329 329 329 328 328 328 328 329 330 330 330 330 330 330 330 330 330 331 331 331 331 331 330 329 328 327 328 329 329 328 330 331 330 329
312 313 313 313 313 313 313 311 311 313 314 315 316 318 317 317 318 320 321 322 323 324 326 326 326 327 326 327 328 329 329 329 328 328 328 328 329 329 328 329 330 331 331 330 330 331 332 331 331 331 331 330 330 330 328 327 328 329 328 329 330 330 329
312 312 311 312 312 311 311 310 309 310 311 312 313 314 314 315 315 316 317 317 318 320 322 324 325 326 327 327 328 329 329 329 328 328 328 328 328 328 327 328 329 330 331 331 331 331 332 331 330 330 331 331 330 330 330 328 328 329 329 329 329 330 329
311 311 310 311 311 310 309 309 308 308 309 310 311 311 312 313 313 314 314 313 313 315 317 319 320 322 324 325 327 328 328 327 327 327 327 327 327 328 328 327 328 328 329 330 331 331 331 331 330 329 330 330 330 330 330 329 328 328 329 329 329 329 328
311 310 310 310 310 309 309 308 307 307 307 308 309 309 310 310 311 312 312 311 310 311 313 314 316 318 320 322 324 326 327 326 326 326 327 327 327 327 327 327 327 328 327 328 330 330 330 330 330 330 329 329 329 330 330 329 328 328 328 328 329 329 328
310 310 309 309 309 308 308 308 307 306 306 306 306 307 307 308 308 309 310 308 307 308 309 310 312 314 315 318 321 323 325 326 326 326 326 326 327 326 327 327 327 327 327 327 328 329 327 328 329 328 327 328 329 330 330 330 329 329 329 328 328 328 328
309 309 308 308 308 307 307 307 307 306 305 305 304 305 305 305 306 306 308 307 305 305 306 307 308 310 311 314 317 320 322 324 325 325 326 326 326 326 327 327 327 327 327 327 328 328 327 326 327 327 327 329 330 330 331 330 329 329 328 328 327 327 327
308 308 307 307 307 307 307 307 307 306 305 305 304 304 303 303 304 303 305 305 303 302 303 304 305 306 308 310 313 316 319 321 323 325 326 327 326 326 326 327 328 328 328 328 328 328 327 327 326 326 327 329 331 331 330 330 330 328 328 327 326 327 326
307 307 307 307 307 306 306 306 307 306 306 305 304 304 303 303 303 302 302 303 301 300 301 302 302 303 304 307 310 313 316 319 321 324 326 327 327 326 326 326 327 328 328 328 328 328 328 328 327 326 326 327 329 330 330 330 330 329 328 327 326 326 326
306 306 306 306 306 306 305 306 306 306 306 306 305 304 303 303 302 302 301 301 300 299 299 300 300 301 302 305 308 311 314 316 319 322 324 326 326 327 327 326 327 327 327 328 328 328 328 328 327 326 327 327 327 328 329 329 329 329 328 327 327 327 326
305 305 305 305 305 305 305 305 305 305 305 305 305 304 303 303 302 301 301 301 300 298 297 297 298 299 301 304 307 311 313 315 318 320 322 324 326 327 327 327 327 327 326 327 327 327 327 328 328 327 327 327 327 328 328 328 329 329 327 326 326 325 325
305 304 304 304 304 304 304 304 304 304 304 304 304 304 304 303 302 301 300 300 299 298 297 296 297 298 300 303 306 310 313 315 317 318 319 322 325 327 327 326 326 326 326 326 326 327 327 328 328 328 327 326 326 327 327 327 328 328 326 326 325 324 324
304 304 304 304 304 303 303 303 303 303 302 302 303 304 304 303 302 301 300 300 299 298 297 296 296 298 301 303 306 309 312 314 316 317 318 320 323 324 325 326 325 325 325 326 326 327 327 327 327 328 327 326 326 326 327 328 328 327 326 326 325 324 324
303 303 304 304 304 303 303 303 303 302 302 301 301 302 303 302 302 301 300 299 299 297 296 296 296 298 300 303 306 308 310 312 314 315 317 319 322 324 325 325 325 325 325 325 326 326 326 327 327 327 327 327 327 327 326 326 328 328 327 326 325 324 323
302 302 302 303 303 302 303 303 303 302 301 301 301 301 301 301 301 300 299 299 298 297 296 296 296 297 299 302 304 306 307 309 312 314 314 316 320 322 323 324 325 325 325 325 326 326 326 326 326 327 327 328 328 327 326 326 327 328 327 327 326 325 324
302 301 300 301 301 301 301 302 302 302 301 300 300 300 300 300 300 299 299 298 298 297 297 296 297 296 297 300 302 303 304 306 308 310 311 312 313 315 318 321 323 324 324 324 325 326 326 326 326 326 327 327 327 327 327 327 327 327 327 327 326 326 325
301 300 300 299 300 299 299 300 301 302 301 300 300 300 300 300 300 299 298 298 297 297 296 296 297 297 297 297 299 300 301 302 304 305 306 307 307 308 311 314 318 319 320 322 323 325 326 326 326 326 326 326 326 326 327 328 328 328 327 327 326 325 325
301 300 299 299 298 298 299 299 299 300 301 300 300 300 300 300 299 299 298 298 297 297 296 296 297 297 296 296 297 297 298 299 299 300 301 302 303 304 305 307 311 313 315 317 321 322 323 324 325 326 326 326 325 325 326 327 327 327 326 326 325 325 325
300 300 299 299 298 298 298 298 298 299 300 300 299 299 300 300 299 299 298 298 297 297 296 296 296 296 296 296 296 296 296 297 297 297 298 298 300 301 302 302 305 308 311 314 317 319 321 323 323 324 325 325 324 325 325 325 325 325 325 325 325 326 326
300 300 299 299 298 298 297 297 297 298 299 299 298 298 299 300 299 299 298 298 297 297 296 296 296 296 296 296 296 296 296 296 296 296 297 297 297 299 300 300 302 304 307 309 312 316 320 321 322 323 324 324 323 323 324 324 324 324 325 324 325 326 325
299 299 299 299 298 298 297 297 297 297 297 297 296 296 298 299 299 299 298 298 298 297 297 297 296 296 296 296 296 296 296 296 296 296 296 296 296 297 298 300 301 302 304 307 310 313 316 319 321 322 324 324 322 322 323 323 323 324 324 324 323 322 320
299 299 299 299 298 298 297 297 297 297 297 297 296 296 297 299 299 298 298 298 297 297 297 297 296 296 296 296 296 296 296 296 295 296 295 295 295 296 297 298 300 301 303 305 308 311 313 316 319 321 323 323 323 322 322 321 320 321 321 321 320 318 317
299 299 299 299 299 298 297 297 297 297 296 296 296 295 297 298 298 296 295 296 296 296 296 296 296 296 296 296 295 296 296 296 296 295 295 295 294 294 295 296 297 299 301 303 305 308 311 314 317 320 321 322 322 322 320 318 318 317 317 317 317 315 316
299 299 299 299 299 298 297 297 297 297 296 296 295 295 295 296 297 295 294 294 294 294 294 295 295 296 297 296 296 295 295 296 296 296 295 294 294 294 294 294 295 298 300 301 302 304 307 310 314 316 318 321 322 320 317 316 316 315 313 313 314 313 313
299 299 299 299 299 298 297 296 297 297 296 296 295 295 295 295 296 295 294 294 293 293 293 294 295 296 297 296 296 296 295 295 296 296 295 294 294 294 294 294 295 297 299 300 301 302 303 306 308 310 313 317 318 316 315 314 313 312 310 310 310 310 309
300 299 299 299 299 298 297 296 296 296 296 295 295 295 294 294 295 295 294 293 293 293 293 293 294 295 297 297 296 296 296 295 295 295 295 295 294 295 295 295 295 296 298 298 299 301 301 302 303 304 308 312 314 313 313 313 311 309 308 307 306 306 305

ECMWFFLT1_925_thetae_072.txt.gz
Theta_e
328 328 329 329 330 331 332 332 333 333 333 333 333 333 333 333 334 334 334 334 334 334 334 333 333 333 333 333 333 333 333 333 332 331 331 331 330 330 331 331 330 329 329 329 329 330 332 333 332 330 330 330 329 329 330 331 331 331 331 330 330 330 330
326 327 327 327 327 328 328 329 330 331 331 331 331 332 332 333 333 333 334 334 335 334 333 333 333 333 333 333 332 332 332 332 331 330 330 330 330 329 329 330 330 329 329 328 328 328 329 331 332 331 330 330 329 328 328 328 329 330 330 330 330 330 330
324 325 325 325 325 325 325 326 327 328 329 329 330 330 331 332 332 333 333 334 334 334 334 334 333 333 333 333 332 332 331 330 330 330 330 329 329 329 329 329 329 328 328 328 328 328 327 328 330 331 330 331 331 330 329 329 329 330 330 329 330 330 329
322 323 323 322 322 322 323 323 325 325 326 327 328 329 329 330 330 331 332 332 333 334 333 333 333 333 333 333 333 332 331 330 330 330 330 330 329 329 329 329 329 328 328 328 328 329 328 328 328 329 330 331 331 331 330 331 331 330 330 329 329 329 329
320 320 320 320 320 320 321 321 322 323 324 325 326 326 327 328 329 329 330 330 331 332 332 332 332 332 332 333 332 332 331 330 330 330 330 330 329 329 329 329 329 329 329 329 328 328 328 328 328 328 329 330 331 331 330 331 331 331 331 330 330 329 329
319 318 318 318 318 318 319 319 319 320 321 322 323 324 325 326 327 328 329 329 329 329 329 330 330 330 331 331 332 331 331 330 330 330 330 330 329 329 329 329 329 329 329 329 329 328 328 328 328 328 329 329 330 330 330 331 331 331 331 330 330 330 329
317 316 317 317 317 317 316 316 317 318 319 320 321 322 323 323 325 326 326 326 326 326 326 326 326 327 328 329 330 330 330 329 329 330 330 330 330 329 329 329 330 329 329 329 329 328 328 328 328 328 328 329 329 329 330 330 330 330 330 330 330 330 329
315 315 315 315 316 315 314 314 316 316 317 318 319 320 320 321 322 323 323 323 323 324 325 325 325 325 325 326 328 328 329 329 329 329 329 329 329 329 329 328 329 330 329 329 329 328 328 328 328 328 328 329 330 329 329 330 330 330 330 330 330 330 329
314 314 314 314 314 314 313 314 315 315 316 316 318 319 318 319 320 320 321 321 322 323 325 325 325 325 325 325 326 326 327 327 328 328 328 329 328 328 328 328 328 329 329 329 329 328 328 328 329 328 327 328 330 330 330 330 330 330 330 330 330 330 330
313 313 313 313 312 312 313 315 315 315 315 316 316 316 316 318 318 316 317 318 319 321 323 323 324 325 325 325 325 326 326 326 326 327 328 329 328 328 328 328 328 328 329 329 329 328 329 329 329 328 327 327 327 329 331 331 330 329 329 330 330 330 330
311 312 312 311 310 310 311 313 313 313 314 314 314 314 315 316 315 314 315 316 317 318 319 320 322 323 324 325 325 326 326 327 327 327 328 328 328 328 328 328 328 328 328 329 329 328 329 329 329 328 328 327 327 327 329 330 330 329 328 330 330 330 330
311 311 310 309 308 308 308 308 310 311 311 312 312 312 312 313 313 312 312 313 314 315 316 317 318 320 321 322 324 324 326 327 328 328 328 329 329 328 328 328 328 328 328 328 328 328 328 329 329 329 328 327 326 327 327 328 330 329 328 329 330 330 330
309 310 309 309 308 307 306 306 307 307 308 309 309 309 310 310 311 311 309 309 312 313 313 314 314 316 318 319 321 322 324 325 326 327 328 328 328 328 328 328 328 328 329 328 328 328 328 328 329 329 329 327 326 327 327 326 327 328 327 328 330 330 330
308 308 308 308 307 307 306 305 305 305 306 306 306 307 307 308 309 309 307 307 309 309 309 310 311 312 314 316 318 319 321 323 324 326 327 327 327 328 328 327 327 328 328 328 328 328 328 329 329 329 330 329 327 327 327 325 325 326 326 327 328 330 330
307 307 307 307 307 306 306 305 305 304 304 304 304 304 304 305 306 307 305 304 305 306 306 307 308 309 310 312 315 317 319 320 322 323 325 326 327 327 328 328 327 327 327 327 328 329 329 330 330 329 330 330 329 328 327 327 326 326 326 326 328 329 329
306 306 306 307 307 306 306 305 305 304 304 303 303 303 303 303 304 304 302 301 302 302 302 302 304 306 308 309 312 315 316 318 319 321 323 324 326 326 327 327 327 327 326 326 327 327 328 328 329 329 329 330 330 328 328 327 326 326 326 326 327 328 329
306 306 306 306 306 306 306 305 305 304 303 303 302 302 302 302 302 302 301 300 300 299 299 299 300 303 305 307 309 312 314 316 318 319 320 322 324 325 326 326 326 326 326 327 327 327 327 327 327 328 328 329 328 328 328 327 327 327 326 326 327 328 329
306 306 305 305 305 306 306 305 305 304 303 303 302 301 301 301 301 301 301 299 298 298 297 297 298 300 302 304 307 309 311 313 316 318 319 321 323 324 326 326 326 326 326 326 326 326 327 327 326 327 327 327 327 327 328 328 328 328 326 326 327 327 328
304 304 304 304 304 304 304 304 304 304 303 302 302 301 300 300 300 300 300 299 297 297 297 297 297 298 300 303 305 307 309 312 314 316 318 321 322 324 325 326 326 326 326 326 326 326 327 327 327 327 326 326 327 327 328 328 328 328 326 326 326 326 327
303 303 303 303 303 302 302 302 303 304 304 303 302 300 300 299 299 299 299 298 297 296 297 297 297 297 299 301 303 305 307 310 312 315 317 319 321 322 324 325 326 326 326 327 327 326 327 327 327 327 326 326 326 327 327 327 327 327 326 325 325 325 326
303 303 303 303 302 301 301 301 301 302 302 302 301 300 300 299 299 298 298 297 297 296 296 297 297 297 299 300 302 304 306 308 310 313 316 318 319 320 322 324 326 326 326 326 326 327 327 327 327 326 326 326 326 326 327 327 327 326 325 325 325 325 325
303 303 303 303 302 301 300 300 300 300 301 301 300 300 299 298 298 298 298 297 297 296 296 296 297 297 297 298 300 303 305 307 309 312 314 315 316 317 320 322 324 326 326 326 326 326 327 327 327 327 326 327 326 326 326 327 326 326 325 325 325 325 324
301 301 301 303 302 301 300 300 300 299 300 300 300 299 298 298 298 297 297 297 296 296 296 296 297 297 297 298 299 301 304 306 307 309 311 310 311 312 315 318 320 322 323 323 324 325 326 327 327 327 327 327 327 326 325 326 326 326 326 325 324 324 324
299 299 300 301 302 301 300 299 299 299 299 299 299 299 298 298 297 297 297 296 296 296 296 296 297 297 298 298 298 299 301 302 303 305 305 305 305 306 309 312 315 317 318 320 321 323 325 326 327 327 327 327 327 326 326 325 325 325 326 325 324 324 324
298 298 299 299 300 300 300 299 299 299 299 299 299 299 298 298 297 297 297 296 296 296 296 296 296 297 297 298 297 297 298 299 300 300 301 301 301 302 303 306 310 312 313 316 318 320 322 324 325 326 327 327 327 327 326 326 326 325 325 325 324 324 324
297 297 298 298 298 299 300 299 298 298 298 299 299 298 298 298 297 297 297 296 296 296 296 296 296 296 297 297 297 297 297 297 298 298 299 299 299 299 300 302 305 308 310 312 315 317 319 321 322 324 326 326 326 326 326 326 326 326 326 325 324 324 324
297 297 297 297 298 298 298 298 297 297 297 299 299 299 298 298 297 297 297 296 296 296 296 296 296 296 297 297 297 296 296 297 297 297 297 298 298 298 299 299 300 303 306 308 310 312 315 318 319 321 324 325 326 326 326 326 326 325 326 326 325 325 325
297 297 296 297 297 297 296 296 296 296 297 299 299 298 297 297 297 297 296 296 296 296 296 296 296 296 296 297 297 296 296 296 296 296 296 297 297 297 297 298 298 300 303 304 305 307 310 314 317 319 322 324 325 326 326 326 325 325 326 326 326 326 325
297 297 296 296 296 296 295 295 295 297 298 298 297 296 295 295 295 295 295 295 295 295 295 296 296 296 296 296 296 296 296 296 296 296 296 296 296 296 297 297 297 298 300 302 303 305 307 311 315 318 321 323 324 324 324 324 325 325 325 325 326 326 325
297 297 296 296 296 296 295 295 295 296 297 296 295 294 294 294 293 294 293 293 294 294 295 295 296 296 296 295 295 295 295 295 295 296 295 296 296 296 296 296 296 297 299 300 301 303 305 308 313 316 319 322 323 324 323 323 323 324 325 325 325 325 326
297 297 296 297 296 296 296 295 295 295 295 295 295 295 294 293 293 293 293 292 293 294 294 294 296 296 296 296 295 295 294 294 294 295 295 295 295 295 296 296 295 295 296 298 300 302 304 306 309 312 315 318 322 323 323 323 323 323 324 324 324 324 325
298 297 296 296 296 296 296 295 295 295 295 295 295 295 294 293 293 292 292 292 292 293 293 294 295 296 296 296 295 295 294 293 293 294 295 295 295 295 295 296 296 295 295 297 299 301 302 304 306 309 311 314 319 323 323 323 323 322 323 323 322 323 324
298 297 296 296 296 296 296 295 295 295 295 294 294 294 294 293 293 292 292 292 293 293 293 294 295 296 296 296 295 295 294 293 292 293 294 294 294 294 294 295 295 295 296 297 298 300 301 302 304 306 309 311 315 320 322 323 322 321 320 320 320 321 322
298 298 297 296 296 296 295 295 295 295 294 294 294 294 293 293 293 292 292 292 293 293 293 294 295 296 296 296 296 295 294 293 292 293 293 293 293 293 293 294 294 295 295 297 297 298 300 301 302 304 306 309 313 316 319 321 320 318 317 317 317 317 317
298 298 297 296 296 296 295 295 295 295 294 294 294 293 293 293 293 292 292 292 293 294 294 294 295 296 296 296 296 295 295 294 293 293 292 292 292 292 292 293 294 294 295 296 297 297 298 299 301 303 305 309 314 316 317 318 318 315 314 314 314 314 314
298 298 297 297 296 296 295 295 295 295 295 294 294 293 293 293 292 292 292 292 293 294 294 294 295 295 296 296 296 296 295 294 294 293 292 292 292 292 292 293 294 295 295 296 296 296 297 298 299 301 303 308 312 314 315 316 315 313 312 311 311 311 311
299 298 298 297 297 296 296 295 295 295 294 294 294 293 293 293 292 292 292 292 292 293 294 294 295 295 296 296 297 296 295 294 294 293 293 293 292 292 292 292 294 295 295 296 296 296 296 296 297 299 302 304 307 309 310 311 311 311 309 308 307 307 306

ECMWFFLT1_925_thetae_075.txt.gz
Theta_e
327 326 326 327 327 327 328 328 328 329 328 329 329 329 330 330 331 331 331 332 332 333 333 333 333 333 333 333 332 332 332 332 332 331 331 331 330 330 330 331 331 331 331 330 329 329 330 331 330 330 330 330 330 330 330 330 330 330 330 330 331 331 332
325 324 324 325 326 327 327 327 328 328 327 327 327 328 328 329 329 330 330 330 331 332 332 333 332 332 332 332 332 332 333 332 332 332 332 331 331 330 330 329 330 330 330 330 329 328 328 329 331 330 330 330 330 330 330 330 330 330 331 331 331 332 332
323 322 323 323 324 325 325 326 326 326 325 325 326 326 326 327 328 328 329 329 329 330 330 330 330 331 331 331 331 332 332 332 332 332 332 331 330 330 330 329 329 329 329 329 329 329 328 328 329 329 329 330 330 330 330 330 330 330 331 331 332 332 332
320 320 321 321 321 322 322 323 323 323 323 324 325 325 325 325 326 327 327 328 328 328 328 328 328 328 329 329 328 329 330 330 331 332 331 331 330 330 329 329 329 329 329 329 329 329 328 328 329 328 328 329 329 329 329 329 329 329 331 331 332 332 332
318 318 318 318 318 318 319 320 320 321 322 322 323 323 323 323 324 325 326 326 326 326 326 326 326 326 326 326 326 326 327 328 330 331 331 330 329 329 329 329 329 329 329 329 329 329 329 329 329 328 328 328 329 329 329 329 329 328 329 330 331 331 331
316 316 316 316 315 315 315 317 318 318 319 320 321 320 320 321 322 322 322 322 322 322 323 324 324 324 324 324 324 324 324 325 327 328 329 329 328 327 328 328 328 329 329 329 329 328 329 328 328 329 328 327 328 328 329 329 328 328 328 329 330 330 329
314 314 315 314 313 313 313 314 315 315 316 317 318 317 317 317 318 318 318 319 319 319 320 321 322 322 322 323 324 324 324 324 324 325 326 327 327 328 328 328 328 329 329 329 329 328 328 328 328 328 328 327 327 327 329 330 329 329 329 329 330 329 329
313 312 312 312 311 311 312 313 313 313 314 314 315 315 315 314 314 315 316 316 317 318 318 319 319 319 320 321 322 323 324 325 325 325 326 326 326 327 327 327 328 329 329 329 329 329 329 328 328 328 328 328 328 328 328 329 330 330 330 330 330 330 330
310 310 309 309 309 309 310 311 311 311 312 312 312 313 313 313 312 312 313 313 315 315 316 317 317 317 317 318 320 321 323 324 325 325 326 326 326 327 326 327 327 328 328 328 329 329 329 329 328 328 327 327 328 329 328 328 329 330 330 330 330 330 330
309 308 307 307 307 307 308 308 309 309 310 310 310 311 312 311 310 310 310 311 312 313 314 315 314 315 316 317 318 320 320 321 322 324 325 326 327 327 327 328 328 327 328 328 328 328 328 329 329 328 327 327 327 329 329 329 330 329 329 329 329 329 330
308 307 306 306 306 306 306 306 306 307 307 308 309 309 310 309 308 307 308 309 309 310 311 311 312 313 315 316 317 318 319 319 320 321 323 325 325 326 327 327 328 328 328 328 328 328 328 328 328 328 328 327 327 327 329 330 330 328 328 329 329 329 329
307 307 306 305 305 305 305 305 305 305 305 306 307 307 307 307 305 305 306 307 307 308 308 309 310 311 313 314 315 316 317 318 319 320 321 323 324 325 326 326 327 328 328 328 328 328 328 328 328 328 328 327 327 327 327 327 328 328 327 328 328 329 329
307 306 306 305 305 304 304 304 304 304 304 304 305 305 305 304 303 302 303 303 304 305 305 306 307 308 309 311 312 312 314 315 316 318 320 321 322 323 324 325 326 327 328 328 328 328 328 328 328 328 328 327 327 327 326 326 327 327 327 327 328 329 329
306 306 306 305 305 304 304 303 303 303 303 303 303 303 303 302 302 301 300 300 300 300 302 302 303 305 307 308 309 310 311 311 312 314 316 318 320 321 321 323 325 326 327 327 328 328 328 328 327 327 327 327 326 326 326 326 326 326 326 326 328 328 328
306 306 306 305 305 304 304 303 302 302 302 301 301 301 301 301 301 300 298 298 298 298 299 299 299 301 302 304 305 306 306 306 307 310 311 314 316 317 318 320 323 325 325 326 327 327 327 327 327 327 327 327 327 326 326 326 326 325 325 326 327 328 329
305 305 305 305 305 304 304 302 301 300 300 300 300 300 300 300 299 299 298 298 298 298 298 298 298 298 298 299 300 302 304 304 305 307 309 310 312 314 315 317 320 323 325 326 326 326 326 327 327 327 327 327 327 327 327 326 326 325 324 325 325 327 328
304 304 304 304 304 304 304 302 300 299 299 299 299 299 299 298 298 298 297 297 297 297 297 297 297 297 297 297 298 301 303 304 306 307 308 310 311 312 313 316 319 322 324 325 326 326 326 326 326 326 326 327 328 328 327 327 326 325 325 325 325 326 327
302 301 302 302 303 304 304 302 301 300 299 298 298 298 298 298 297 297 297 297 297 296 297 297 297 297 297 298 300 302 303 304 305 307 308 309 310 311 313 314 317 320 323 325 326 326 326 326 326 326 326 326 326 327 327 327 326 326 325 325 326 326 326
301 300 300 300 301 301 302 301 301 300 298 298 298 297 297 297 297 297 296 296 296 296 296 296 297 297 297 298 300 302 303 303 304 305 306 307 308 309 309 311 313 315 317 320 322 324 326 326 326 326 325 326 326 326 326 325 325 325 325 325 325 326 326
301 300 299 299 299 299 299 300 299 299 298 297 297 297 297 297 297 296 296 296 296 296 296 296 296 297 297 297 298 300 300 301 302 303 304 305 306 305 305 307 310 310 311 313 315 317 319 322 324 326 326 326 326 325 325 325 325 326 326 326 326 326 326
301 300 299 299 299 298 299 299 299 298 298 297 297 297 297 297 297 296 296 296 296 296 296 296 296 296 297 297 297 297 298 299 300 300 302 303 303 303 303 304 306 306 307 310 311 312 313 315 318 322 325 326 326 325 325 325 326 326 326 326 326 326 326
301 300 299 298 298 298 298 298 298 298 297 297 297 296 296 296 296 296 296 296 296 296 295 295 295 296 296 296 296 296 297 298 298 299 300 300 301 301 301 301 303 303 305 309 311 312 313 313 313 316 319 323 325 325 325 325 326 326 326 326 325 325 325
301 300 299 298 298 298 298 298 298 298 297 297 297 296 296 295 295 295 296 296 296 296 295 295 295 295 296 296 296 296 296 297 297 297 298 298 299 299 299 300 301 302 304 308 309 311 312 313 313 314 316 319 321 323 325 325 325 325 326 326 325 325 324
300 300 299 299 298 297 298 298 298 298 297 297 296 296 295 295 295 295 295 295 295 295 295 295 296 295 295 296 296 296 296 296 297 296 297 297 297 298 298 298 299 300 302 304 305 307 309 311 313 314 316 318 320 321 323 324 325 325 325 325 325 325 324
298 298 297 297 296 296 297 298 297 296 295 294 294 294 294 293 293 294 294 295 295 295 295 295 296 295 295 295 296 296 295 296 296 296 296 296 296 296 297 297 298 298 299 300 301 303 306 308 311 312 314 318 321 322 322 323 324 325 325 325 325 324 324
296 295 295 295 296 297 297 296 294 294 293 293 293 292 292 292 292 293 293 294 294 294 295 295 296 296 295 295 295 295 295 295 295 295 296 295 295 295 296 296 297 297 298 299 299 300 302 305 308 310 312 316 319 322 323 323 323 324 324 325 325 324 324
295 295 295 295 296 296 296 295 294 294 293 292 292 292 292 292 292 292 293 293 294 294 294 295 296 296 295 295 295 295 295 294 294 294 295 295 295 295 295 295 296 296 296 297 297 298 299 302 304 307 309 312 316 319 322 323 324 324 324 324 324 324 325
295 295 295 295 295 295 295 294 294 294 293 293 293 292 292 292 292 292 293 293 294 294 295 295 296 296 296 295 295 295 294 294 294 294 294 295 295 295 294 295 295 295 294 294 295 296 297 299 302 304 306 308 312 316 319 321 323 324 324 324 324 324 325
295 295 295 295 295 295 294 294 294 294 294 293 293 292 292 292 292 292 293 293 294 294 295 296 296 296 296 295 295 294 294 294 293 293 293 294 294 294 294 294 294 294 293 293 294 295 296 298 300 302 302 304 308 312 316 319 321 322 323 324 324 325 325
295 295 295 295 295 294 294 294 294 294 293 293 293 292 292 292 292 292 293 293 293 294 295 295 296 296 296 295 295 294 294 293 293 293 293 293 293 293 293 294 294 293 292 292 294 295 296 297 298 299 299 300 304 308 313 316 318 320 322 323 323 324 324
295 295 295 295 295 294 294 294 294 293 293 293 293 292 292 292 292 292 293 293 293 294 295 295 296 296 296 295 295 294 294 293 292 292 292 293 293 293 293 293 293 293 292 292 293 295 295 296 297 297 297 298 300 303 308 313 315 318 321 322 322 323 324
295 295 295 295 295 295 294 294 294 294 293 293 293 292 292 292 292 292 293 293 293 294 295 295 296 296 296 296 295 294 294 293 292 292 292 292 292 292 292 292 293 292 292 292 293 294 295 295 295 295 295 296 297 300 304 309 312 316 319 322 322 322 323
296 295 295 295 295 295 295 294 294 294 294 293 293 292 292 292 292 292 292 292 293 293 294 295 296 297 296 296 295 294 294 293 292 292 291 291 291 291 291 292 292 292 292 293 293 293 294 295 295 294 295 294 295 298 303 308 312 314 316 319 321 321 322
296 295 295 295 295 295 295 294 294 294 294 294 293 293 292 292 292 292 291 292 292 292 293 294 296 297 296 296 295 295 294 294 293 292 291 291 291 290 291 291 291 291 292 293 293 293 294 295 295 295 295 295 297 300 305 309 313 314 314 316 318 318 318
296 296 295 295 295 295 295 295 294 294 294 294 293 293 292 292 292 292 291 292 292 292 293 294 296 297 297 296 295 295 294 294 293 292 291 291 290 290 290 291 291 291 291 292 293 293 293 294 295 294 295 297 300 303 306 309 311 312 312 313 314 314 314
297 296 296 295 295 295 295 295 295 294 294 294 293 293 292 292 292 292 291 292 292 292 293 294 295 296 296 296 295 295 294 294 293 292 292 291 291 290 291 291 291 291 291 292 293 293 293 294 294 294 295 297 299 302 304 305 306 308 309 309 308 308 308
297 297 296 296 295 295 295 295 295 294 294 294 293 293 292 292 292 292 291 291 292 292 293 294 295 295 296 296 296 295 294 293 293 292 292 291 291 291 290 291 291 291 291 292 292 293 293 294 294 294 294 295 297 299 300 301 300 302 303 304 303 302 302

ECMWFFLT1_925_thetae_078.txt.gz
Theta_e
322 322 322 322 322 323 323 323 324 324 324 324 325 325 326 327 327 328 328 328 328 328 329 329 329 329 330 330 330 330 330 330 330 330 331 331 331 331 330 330 331 330 330 330 330 330 332 332 330 329 329 329 329 329 329 329 328 328 329 328 328 328 327
321 321 321 321 321 321 322 322 322 322 322 322 323 323 323 324 325 325 325 325 325 325 326 326 326 326 326 327 327 327 328 328 328 329 330 331 330 330 329 329 329 328 328 328 329 329 330 331 331 330 329 329 329 329 329 329 328 328 329 329 329 328 328
320 320 320 320 320 320 320 320 320 320 320 321 321 321 321 321 322 322 322 322 322 322 323 323 323 323 323 323 324 325 326 326 326 326 327 328 328 328 329 329 329 328 328 328 328 329 329 330 330 330 329 329 329 329 329 329 329 329 328 329 329 329 329
318 318 319 318 318 318 318 318 318 318 319 319 318 319 319 319 318 319 319 319 320 320 320 320 320 320 320 320 321 322 323 324 324 324 324 325 326 327 329 329 329 328 328 328 328 328 328 328 329 329 329 328 329 329 329 329 329 329 329 328 329 329 329
316 316 316 315 316 316 316 316 317 317 317 316 316 316 316 316 316 317 317 318 318 318 318 318 318 318 318 318 319 320 322 322 323 323 323 324 325 325 326 326 326 325 325 326 326 326 326 327 327 329 329 328 328 328 328 329 329 329 329 329 329 329 329
314 314 314 314 314 314 314 314 315 315 314 314 314 313 312 313 314 313 314 314 315 315 316 316 317 317 317 317 318 319 319 320 321 322 323 324 325 325 326 326 326 327 326 326 326 326 326 327 327 328 328 328 328 328 328 328 328 328 329 329 329 329 329
312 312 312 312 312 313 313 313 313 313 312 313 313 312 312 313 312 311 311 312 312 313 313 314 315 316 316 317 317 317 317 318 319 320 321 323 323 324 325 325 326 327 327 327 326 326 326 327 327 328 328 328 328 328 328 327 328 328 328 328 328 328 329
309 309 309 310 310 311 311 312 312 311 311 311 311 311 311 312 311 310 311 311 311 311 312 312 313 314 314 315 316 316 316 316 317 318 319 320 321 322 323 323 324 326 326 327 327 326 326 326 327 328 328 328 328 328 328 328 328 328 328 328 328 328 328
306 307 307 307 307 308 308 309 309 309 309 310 310 310 309 309 308 309 309 309 310 310 310 310 311 311 312 312 313 314 314 314 315 316 317 318 319 320 321 322 323 324 324 325 326 327 327 327 327 327 327 328 328 329 329 328 328 329 328 328 329 328 328
305 305 305 305 305 305 305 305 306 306 307 307 307 307 306 305 304 305 306 307 307 307 307 307 307 308 309 309 310 310 310 311 312 313 314 316 317 318 319 320 321 322 323 324 325 326 327 327 327 328 328 328 328 328 329 329 329 328 328 329 329 329 328
304 304 304 304 304 304 303 303 304 304 304 304 304 304 303 302 302 303 303 304 304 304 304 305 305 306 307 307 308 307 307 308 309 311 312 312 314 315 316 317 318 319 321 323 324 325 326 327 327 328 328 328 328 328 328 329 329 328 327 328 329 329 329
305 304 304 304 303 303 302 302 302 302 302 302 302 302 301 300 300 301 301 301 302 302 302 302 303 304 305 304 304 304 304 305 306 307 309 309 310 311 311 313 314 316 318 320 322 324 325 326 327 327 328 328 328 328 327 327 328 328 327 328 328 328 329
305 304 304 303 302 301 300 301 301 301 301 301 301 300 299 299 299 299 299 299 300 300 300 300 300 302 303 301 301 302 303 305 305 306 308 308 309 309 309 310 312 314 316 318 320 323 324 325 326 327 328 328 328 328 328 326 327 327 326 327 328 328 328
304 304 303 301 300 299 299 299 299 299 300 299 299 299 298 298 298 297 297 297 298 298 298 298 298 299 299 300 301 302 304 305 305 305 307 308 308 308 309 310 311 312 313 316 318 321 323 325 325 326 327 328 328 328 327 326 326 326 326 326 327 327 327
304 304 303 300 299 299 299 298 298 298 298 298 298 298 297 297 297 297 296 296 296 297 297 297 297 297 297 298 300 301 302 303 303 303 304 305 306 307 307 308 310 309 310 312 314 317 320 322 324 326 326 327 327 327 327 326 326 326 326 325 325 326 326
303 304 303 301 300 299 298 297 298 297 297 297 297 297 297 297 296 296 296 296 296 296 296 296 296 297 297 297 297 298 299 300 301 302 303 303 304 305 305 306 307 307 307 308 309 311 313 316 318 322 324 326 327 326 326 326 326 326 326 325 325 325 326
301 302 302 300 299 298 297 296 297 297 297 297 297 297 297 296 296 296 296 296 295 295 295 295 296 296 296 296 296 296 297 298 299 300 301 302 303 303 304 304 304 304 305 306 306 307 308 308 310 314 318 322 325 326 326 326 326 326 326 325 325 325 326
299 300 299 299 298 297 296 295 295 296 296 297 297 296 297 296 296 296 296 295 295 295 295 295 295 296 296 297 296 296 296 297 298 299 300 300 301 301 302 302 302 303 304 304 304 304 304 304 304 306 311 316 320 323 325 325 326 326 325 325 325 325 325
298 298 298 298 297 297 296 296 295 295 295 295 296 296 296 296 296 296 296 295 295 296 295 295 295 295 296 296 297 296 296 296 297 297 298 298 299 299 300 300 300 301 302 303 302 302 302 301 301 302 305 309 313 318 322 324 325 325 325 325 324 324 324
298 298 298 298 297 296 296 296 296 295 295 294 295 295 295 296 296 296 296 296 296 296 296 295 295 295 295 296 296 296 296 296 296 296 296 297 297 297 298 298 299 300 301 301 301 300 300 299 299 300 301 303 307 311 316 320 324 325 325 325 324 324 324
297 298 298 298 298 297 297 296 296 295 294 294 294 294 294 295 296 296 296 296 296 296 296 295 295 295 295 295 295 295 295 295 295 296 296 296 296 296 296 297 297 299 300 300 299 299 298 298 297 298 299 300 301 305 308 314 320 324 325 324 324 324 324
297 298 298 298 298 297 295 294 294 293 293 293 292 292 293 294 296 296 296 296 296 296 296 295 295 295 294 294 295 295 294 294 294 295 295 295 295 296 296 295 296 298 299 299 298 298 297 296 295 296 298 299 300 301 303 307 313 321 325 325 325 325 325
297 296 297 297 296 294 292 292 292 292 292 292 292 292 292 294 295 296 296 296 296 296 295 295 296 295 294 294 294 294 294 294 294 294 295 295 295 295 295 295 295 296 297 297 297 296 296 295 295 295 296 298 299 299 302 304 308 314 322 325 325 325 325
296 296 297 296 293 292 292 292 292 292 292 292 292 292 292 293 294 295 296 296 296 295 295 295 296 295 294 294 294 294 294 294 294 294 294 294 294 294 294 294 295 295 296 296 296 295 295 296 298 299 299 300 300 300 301 304 306 310 316 322 325 325 324
296 296 296 294 293 293 293 292 292 292 292 292 292 292 292 293 294 295 295 295 295 295 295 295 296 295 294 294 294 294 293 293 293 293 293 294 294 294 294 294 294 295 295 295 295 294 294 296 298 300 301 302 303 303 303 303 305 307 311 317 322 324 325
295 295 294 294 293 293 293 293 292 292 292 292 292 292 293 293 294 294 294 295 295 295 295 296 296 295 294 294 294 294 293 293 293 293 293 293 293 293 293 293 294 294 294 294 293 293 292 294 297 299 300 301 303 304 305 306 307 308 310 313 317 321 324
294 294 294 294 294 293 293 293 292 292 292 292 292 292 293 293 293 293 294 294 295 296 296 296 296 295 294 294 293 293 293 293 293 293 293 292 293 292 292 292 293 293 293 292 292 292 292 292 293 296 297 298 299 301 304 307 308 308 310 312 314 317 321
294 294 294 294 293 293 293 293 292 292 292 292 292 292 292 292 293 293 293 294 295 295 296 296 296 295 294 294 293 293 293 293 293 293 293 292 292 292 291 292 292 292 292 291 291 292 292 291 292 293 294 295 297 298 300 303 305 306 307 310 312 314 318
294 294 294 294 293 293 293 293 292 292 292 292 292 291 291 292 292 292 293 294 295 295 296 296 296 295 294 294 293 293 293 293 293 292 292 292 292 291 291 292 292 292 291 291 291 292 292 292 292 293 293 294 295 296 299 301 303 305 307 309 312 314 316
294 294 294 294 294 293 293 293 293 292 292 292 291 291 291 291 291 292 293 294 295 295 296 296 296 295 295 294 293 293 293 292 292 292 292 291 291 291 291 291 292 291 291 291 291 292 293 292 292 292 293 294 294 295 297 301 303 306 308 309 312 315 317
294 294 294 294 294 294 294 293 293 292 292 292 292 291 291 291 291 292 293 294 294 295 296 296 296 295 295 294 293 293 293 292 292 292 291 291 291 290 290 291 291 291 291 291 291 292 292 292 292 292 292 293 293 294 295 298 301 305 308 310 313 316 318
295 294 294 294 294 294 294 294 293 293 292 292 292 292 291 291 291 292 293 293 294 294 295 295 296 296 295 294 294 293 292 292 292 291 291 291 291 290 290 290 290 290 291 291 291 292 292 292 292 292 292 292 292 293 294 296 299 302 306 310 313 315 315
295 295 294 294 294 294 294 294 294 293 292 292 292 292 291 291 291 291 292 292 293 293 294 294 295 295 295 295 294 293 292 292 291 291 291 291 290 290 290 290 290 291 291 291 291 291 292 292 292 292 292 292 291 292 294 296 298 301 304 307 310 311 312
295 295 295 295 294 294 294 294 294 293 293 292 292 292 292 292 291 291 291 291 292 292 293 294 294 294 295 295 294 292 292 292 291 291 291 291 290 290 290 290 291 291 291 291 291 291 292 292 292 292 292 292 292 293 295 296 298 300 303 304 305 306 308
295 295 295 295 295 294 294 294 294 294 293 292 292 292 292 292 292 291 291 291 291 292 293 293 294 294 294 294 294 293 292 291 292 291 291 291 290 290 290 291 291 291 291 291 291 291 291 292 292 292 292 292 293 294 295 296 297 299 300 301 301 301 303
295 295 295 295 295 295 294 294 294 294 293 293 292 292 292 292 292 291 291 291 291 292 293 293 293 294 294 294 294 293 292 292 292 292 291 291 291 291 291 291 291 291 291 291 292 291 291 291 292 292 292 292 293 293 294 295 296 297 298 299 299 299 299
296 296 295 295 295 295 295 294 294 294 294 293 293 292 292 292 292 291 291 291 291 292 293 293 293 293 293 293 293 293 293 292 292 292 292 291 291 291 291 291 291 291 291 291 291 291 291 291 291 291 292 292 292 293 293 293 294 295 296 297 298 298 298

ECMWFFLT1_925_thetae_084.txt.gz
Theta_e
329 327 325 324 324 323 323 323 322 320 319 318 318 318 318 318 319 318 318 318 318 318 318 319 318 319 320 321 321 322 323 324 325 326 327 328 329 329 329 329 330 330 330 330 330 329 329 329 329 329 328 328 329 330 330 330 330 330 331 331 333 334 334
325 324 323 322 322 322 322 322 322 320 318 317 316 316 316 316 316 316 316 316 316 316 316 317 317 317 318 318 319 319 320 321 321 323 325 325 326 327 328 328 329 329 329 329 329 329 329 328 327 327 328 328 328 329 329 330 330 330 330 331 331 332 333
323 322 321 321 321 321 321 321 320 318 317 316 315 314 314 314 313 313 313 313 313 313 313 313 314 315 315 316 317 318 319 319 319 320 321 322 323 324 324 326 327 328 329 329 328 328 328 328 327 327 329 328 328 328 328 328 329 330 330 331 331 332 332
321 321 320 320 320 320 320 319 319 317 316 315 313 312 311 311 310 310 310 310 310 310 311 311 312 312 313 314 315 315 316 316 316 317 317 318 319 320 321 322 324 326 327 328 328 328 328 328 327 327 328 328 327 328 328 328 328 329 330 331 331 332 332
318 319 318 318 318 318 318 318 317 316 315 314 312 310 309 309 310 310 309 309 309 309 309 310 310 310 311 312 312 312 312 313 313 313 314 315 316 317 318 319 320 322 323 324 325 326 326 327 327 327 328 327 327 328 328 328 329 329 330 331 331 332 332
316 316 316 316 316 316 316 316 316 315 314 313 311 310 309 309 309 309 308 308 308 308 308 308 309 309 310 310 310 309 310 310 310 310 312 313 313 314 315 316 318 319 320 321 322 323 324 324 325 326 327 327 328 329 328 328 328 329 329 330 331 332 332
314 314 314 314 314 314 314 314 314 313 312 311 310 309 309 308 308 307 307 307 307 307 307 307 308 308 308 308 308 308 308 308 308 309 310 311 312 312 313 314 315 316 317 318 319 320 320 321 322 324 325 326 327 328 328 327 328 328 329 329 330 330 331
313 312 313 312 312 313 313 313 312 312 311 310 309 308 307 307 307 306 306 306 306 306 306 306 307 308 308 307 307 307 307 307 307 308 309 309 310 310 311 312 313 314 315 316 316 317 318 319 320 321 322 323 324 325 325 326 328 328 328 328 329 329 330
311 311 311 311 311 311 311 311 310 310 309 308 307 307 306 306 306 305 305 305 305 305 305 306 306 307 307 307 307 307 307 307 307 308 308 308 309 309 310 310 311 312 313 313 314 314 315 316 317 317 318 319 320 322 323 324 326 327 327 328 328 329 330
310 310 310 310 310 310 309 309 309 308 308 307 306 306 305 304 304 304 304 304 304 304 304 305 305 306 306 307 307 307 306 307 307 307 307 308 308 308 309 309 310 311 311 311 311 312 312 313 314 314 315 315 316 318 320 320 322 324 326 327 327 328 329
309 309 309 308 309 308 308 308 307 307 306 306 306 305 304 304 304 304 304 304 303 303 303 304 304 305 305 305 306 306 305 306 307 307 307 307 307 307 308 308 308 309 309 309 309 310 311 311 311 312 312 313 313 315 316 317 318 321 323 325 326 327 328
308 308 307 307 307 307 307 306 306 306 305 305 305 304 304 304 303 303 303 303 303 302 302 303 303 303 304 304 304 304 304 305 306 306 306 306 306 306 307 307 307 308 307 307 308 309 309 309 309 309 309 310 311 312 313 314 315 316 318 320 322 324 326
307 306 306 306 306 306 306 306 305 305 305 304 304 304 304 304 303 303 303 302 302 302 302 302 302 302 303 303 303 303 303 303 304 304 305 305 305 305 306 306 306 306 306 306 306 307 307 307 307 307 307 308 309 309 310 311 311 312 313 316 318 320 323
306 306 306 305 305 305 305 305 304 304 304 304 303 303 303 303 303 302 302 302 302 302 301 301 302 302 302 302 302 302 302 302 302 303 304 304 304 304 304 305 305 305 304 305 305 306 306 306 305 305 306 306 306 307 307 308 308 309 311 312 314 317 320
305 305 305 305 304 304 304 304 303 303 303 303 303 303 303 303 302 302 302 302 301 301 301 301 301 301 301 301 301 301 301 301 302 302 303 302 303 303 303 304 304 303 303 303 304 304 304 304 304 304 304 304 305 305 305 306 306 308 309 309 311 313 316
304 304 304 304 304 303 303 303 303 303 303 303 303 302 302 302 302 302 302 301 301 300 300 300 300 300 301 301 301 300 300 301 301 301 302 302 302 303 303 302 302 302 302 302 302 302 302 302 302 302 302 303 303 304 304 304 305 306 306 307 309 311 313
303 303 303 303 303 303 303 302 302 302 302 302 302 302 302 302 302 301 301 301 300 300 300 300 300 300 300 300 300 300 300 300 301 301 301 302 302 302 301 301 301 301 301 301 301 301 301 301 300 300 301 301 301 302 302 303 304 304 305 306 307 309 311
303 303 302 302 302 302 302 301 301 301 301 301 302 302 302 301 301 301 301 301 300 300 299 299 299 299 299 300 300 300 300 300 300 301 301 301 301 301 301 301 300 300 300 300 300 300 299 299 298 299 299 299 300 300 300 301 302 303 304 305 306 307 309
302 301 301 301 301 300 300 300 300 300 301 301 301 301 301 301 301 301 300 300 300 299 299 298 298 298 298 299 300 300 300 300 300 300 300 300 300 300 300 300 299 299 299 299 299 298 298 297 297 297 297 298 298 299 299 300 301 302 303 305 306 307 308
300 300 300 300 300 300 300 300 300 300 300 300 301 301 301 301 301 301 300 300 299 299 298 297 297 297 297 297 298 300 300 299 300 301 300 300 299 299 299 299 299 299 299 298 298 297 297 296 296 296 296 297 297 298 299 299 300 301 303 304 305 307 308
300 300 300 300 300 300 300 300 300 300 300 300 300 300 300 300 301 300 300 300 299 298 297 296 295 295 296 296 297 300 300 300 300 300 300 299 299 299 298 298 298 298 298 297 296 296 296 295 295 295 296 296 297 297 298 299 300 300 302 303 304 305 307
300 300 300 300 300 300 300 300 299 299 299 299 300 300 300 300 301 300 300 299 298 298 297 295 294 293 293 294 296 299 300 300 300 300 299 299 299 298 298 298 298 297 297 296 295 295 295 294 294 295 295 296 296 296 297 298 299 300 301 302 303 304 305
299 300 299 299 299 300 299 299 299 299 299 299 299 299 300 300 300 300 300 299 298 297 296 295 293 292 292 294 296 299 300 299 299 299 299 299 298 298 297 297 297 297 296 296 295 295 295 294 294 294 294 295 295 296 296 297 298 299 300 301 302 303 304
299 299 299 299 299 299 299 299 299 299 299 299 299 299 300 300 300 300 300 299 298 298 296 294 292 292 293 295 296 298 299 299 299 299 298 298 297 297 297 296 296 296 296 296 295 295 295 294 294 294 294 294 295 295 296 297 298 298 299 300 301 301 302
299 298 298 298 299 299 299 299 299 299 299 299 299 300 300 300 300 300 299 299 298 297 295 293 292 292 293 295 296 297 299 298 298 298 297 297 297 296 296 296 296 296 296 295 296 295 294 294 293 294 294 295 296 296 297 297 297 297 298 299 300 300 301
298 298 298 298 298 298 299 299 299 299 299 299 299 299 299 300 299 299 299 299 298 297 295 293 292 292 293 295 296 297 298 298 298 298 297 297 297 296 296 296 296 296 295 295 295 294 293 293 293 294 295 295 296 297 297 296 297 297 298 299 299 300 300
298 298 298 298 298 298 298 299 299 299 299 299 299 299 299 299 299 299 299 299 298 297 294 292 292 291 293 295 296 296 297 297 297 297 296 296 296 296 296 295 295 295 295 295 295 293 292 293 293 294 295 296 296 296 296 296 297 297 298 298 298 298 299
298 298 298 298 298 298 298 299 298 298 298 298 298 298 298 298 298 298 298 298 298 297 294 292 292 292 293 295 296 296 297 297 297 297 296 296 296 296 296 295 295 295 295 295 294 292 292 292 293 294 295 295 295 295 296 296 296 296 296 296 296 296 297
298 298 298 298 298 298 298 298 298 298 298 298 298 298 298 298 298 298 298 298 298 297 294 292 292 291 292 294 296 297 297 297 296 296 296 296 296 296 295 295 295 294 294 294 293 292 291 292 293 294 294 294 294 295 295 296 295 294 294 294 295 295 296
298 298 298 298 298 298 298 298 298 298 298 298 298 298 297 297 297 297 297 297 298 298 295 292 291 291 291 292 296 297 296 296 296 296 296 296 296 295 295 295 294 294 294 293 292 292 291 292 293 294 294 293 294 294 295 295 294 293 294 294 295 296 296
298 298 298 298 298 298 298 298 298 298 297 297 297 297 297 297 298 297 297 296 296 297 296 293 291 292 291 291 294 296 295 295 296 296 296 296 295 295 295 295 294 293 293 292 292 291 291 292 293 294 293 293 293 293 293 293 293 293 293 294 295 295 296
298 298 298 298 298 298 298 298 298 298 297 297 297 297 297 297 297 297 297 297 296 296 297 295 292 292 292 292 293 295 295 295 295 296 296 295 295 295 295 295 294 292 292 292 291 292 291 291 292 293 293 293 292 292 292 292 292 293 293 293 294 295 296
299 298 298 298 298 298 297 298 298 298 297 297 297 297 297 297 297 297 297 297 296 295 296 295 293 292 293 293 292 293 295 295 295 296 296 295 295 295 294 295 294 292 292 292 292 292 292 291 292 293 293 292 292 292 292 292 293 293 293 293 293 294 295
299 298 298 298 298 298 298 298 298 298 298 298 298 298 298 297 297 297 297 297 297 296 295 294 294 292 292 293 292 292 294 294 294 295 296 295 295 295 294 294 294 292 292 292 292 293 292 291 292 293 292 291 292 292 292 292 293 292 292 293 293 293 293
299 299 299 298 298 298 298 298 298 298 298 298 298 298 298 298 298 298 297 296 296 296 296 295 294 293 292 292 292 292 293 293 293 295 296 295 295 295 294 294 294 293 292 293 293 293 293 292 292 292 292 291 292 292 292 292 292 292 292 293 293 293 293
299 299 299 299 298 298 298 298 298 298 298 298 298 298 298 298 298 297 297 297 296 296 297 296 295 293 292 293 293 292 292 292 292 294 295 295 294 294 294 293 293 293 293 293 293 293 293 292 292 292 292 291 292 292 292 293 292 292 293 293 293 292 292
299 299 299 299 299 299 299 298 298 298 298 298 298 298 297 297 297 297 297 297 297 296 296 296 296 294 293 293 293 293 293 293 293 293 294 294 294 294 294 293 293 293 293 293 293 293 293 293 293 292 292 292 292 293 293 293 292 292 293 293 293 292 292

ECMWFFLT1_925_thetae_087.txt.gz
Theta_e
331 329 327 326 325 325 325 323 322 321 320 319 319 319 319 319 319 319 319 319 319 319 319 320 320 320 320 320 320 321 322 322 322 323 324 325 325 326 326 327 327 328 329 329 330 329 329 329 328 328 328 328 329 329 329 329 330 331 331 331 332 333 333
328 326 326 325 325 324 324 322 320 320 319 318 317 317 317 317 317 317 317 317 317 317 317 317 318 318 318 318 318 319 319 319 320 320 320 321 322 323 323 323 324 325 326 328 328 328 329 328 328 328 328 328 328 328 329 328 329 329 329 331 332 331 332
325 325 324 324 324 323 323 321 320 319 318 317 316 316 316 316 315 315 316 316 315 316 316 316 316 316 316 317 317 317 317 317 317 317 318 318 319 319 320 320 321 322 323 325 326 326 326 327 327 327 328 328 328 328 328 328 328 329 329 330 330 331 331
324 324 323 323 323 322 321 320 319 318 316 315 315 315 315 315 315 314 314 314 314 314 315 315 315 315 315 315 315 315 315 315 314 314 316 316 316 317 318 318 319 320 321 322 323 323 323 324 324 325 326 326 326 327 327 327 327 328 328 328 328 330 331
322 322 322 321 321 321 320 319 318 316 316 314 314 314 314 313 313 313 313 313 313 313 314 314 313 313 314 314 313 313 313 312 312 313 314 314 314 315 315 316 317 318 318 319 320 320 321 321 322 322 323 324 323 324 324 325 326 326 327 327 327 329 331
320 319 320 319 320 319 319 318 317 316 314 314 313 313 312 312 312 311 312 311 311 312 312 313 313 313 313 313 311 311 311 310 311 311 312 312 312 313 313 314 314 315 316 317 317 317 318 318 319 320 321 320 321 322 322 322 324 325 325 325 326 328 329
317 317 318 318 318 317 317 316 315 314 313 313 312 311 312 311 310 310 310 310 310 310 311 311 312 312 312 312 311 311 311 311 311 311 311 311 311 311 312 312 312 313 314 315 314 315 315 315 316 317 318 318 318 319 319 320 321 322 323 324 325 326 327
316 315 316 316 316 316 315 314 314 313 312 311 311 310 310 310 309 308 308 309 309 309 310 310 311 311 311 311 311 310 311 311 311 311 310 311 311 311 311 311 311 312 313 312 312 312 313 314 314 314 315 315 316 316 316 317 319 319 321 321 322 323 325
314 314 314 314 314 314 313 313 312 312 311 311 309 309 308 308 308 308 307 307 308 308 308 308 309 310 310 310 309 309 310 310 310 310 310 310 310 310 310 310 310 311 311 310 310 311 311 312 312 312 312 313 314 315 314 314 316 317 317 318 320 320 322
313 313 313 312 312 312 312 311 311 310 310 309 308 308 308 307 308 307 307 306 306 307 308 307 307 308 308 308 308 307 308 309 309 309 309 309 308 309 309 310 310 310 309 309 309 309 309 310 310 310 310 311 312 312 312 312 312 313 314 315 317 317 318
312 312 312 312 311 311 311 310 310 309 309 308 308 307 307 307 307 307 306 306 306 306 306 307 306 306 306 306 306 306 306 306 307 307 308 307 307 308 308 308 309 308 308 307 307 308 308 308 308 308 308 308 309 310 311 311 310 311 312 312 313 314 314
311 311 311 311 310 310 310 310 310 309 308 308 308 307 307 306 306 306 306 306 305 305 305 306 305 305 305 305 305 305 305 305 306 306 306 306 306 307 307 307 307 306 306 306 306 306 306 306 306 306 306 307 307 308 308 308 308 308 309 310 310 311 312
310 310 310 310 310 310 309 309 308 308 307 307 307 307 307 306 306 306 305 305 305 305 305 305 305 305 305 305 304 304 304 304 305 305 305 305 306 306 306 306 305 305 305 305 305 305 305 305 305 305 305 305 306 306 306 306 307 306 307 308 308 309 310
309 309 309 309 309 309 308 308 307 307 307 307 306 306 306 306 305 305 304 304 304 304 304 304 304 304 305 304 304 304 304 304 304 305 305 305 305 305 305 305 304 304 304 304 304 304 304 304 303 303 303 304 304 304 305 305 305 305 305 306 306 307 308
309 309 308 308 307 307 307 307 306 306 306 306 306 306 306 306 305 305 304 303 303 303 303 303 304 304 304 304 304 304 304 304 304 304 304 304 304 304 304 304 304 303 303 302 303 303 302 302 301 301 301 302 302 302 303 303 304 304 304 304 305 306 306
308 308 308 307 307 306 306 306 306 306 306 305 306 306 305 305 305 304 304 303 303 302 302 302 302 303 303 303 304 304 303 304 304 304 304 303 303 303 303 303 303 302 302 302 302 301 300 300 299 300 300 300 300 301 301 301 302 303 303 303 304 305 305
307 308 308 307 306 306 306 305 305 305 305 305 305 305 305 305 304 304 304 303 302 301 301 301 301 301 301 302 303 304 304 303 304 304 303 303 303 303 303 302 302 301 301 301 300 299 299 299 299 299 299 299 299 299 299 300 301 301 302 303 303 304 305
306 306 306 306 306 305 305 305 305 305 305 305 305 305 305 305 304 303 303 302 301 301 300 299 299 299 300 300 302 304 304 303 304 304 303 303 303 302 302 301 301 300 300 300 299 298 298 298 298 298 298 298 298 299 299 299 299 300 301 302 303 303 304
305 305 305 305 305 304 304 304 304 304 304 304 304 304 304 304 304 303 303 302 301 300 299 298 297 298 299 300 302 304 304 304 304 303 303 302 302 302 301 300 300 300 299 299 298 298 297 297 297 297 297 298 298 298 298 298 299 299 300 300 301 302 303
304 304 304 304 304 304 304 304 304 304 304 304 304 304 304 304 304 303 302 301 300 299 298 297 296 296 298 299 301 304 303 303 303 303 302 302 301 301 300 300 300 299 298 298 297 297 297 297 296 296 297 297 297 297 297 298 298 298 299 299 300 301 302
304 304 304 304 303 303 303 303 303 303 304 304 304 304 304 304 303 303 302 301 300 299 297 295 295 296 297 298 301 303 303 303 303 302 302 301 301 300 300 299 299 298 298 297 297 296 297 296 296 296 296 296 296 296 297 297 298 298 299 299 300 300 301
303 303 303 303 303 303 303 303 303 303 303 303 303 304 304 304 303 302 302 301 300 298 296 294 294 295 296 296 299 302 303 302 302 301 301 301 300 299 299 298 298 298 297 297 297 296 296 295 295 295 295 295 295 296 296 297 297 298 298 299 299 300 300
303 303 303 302 303 303 303 303 303 303 303 303 303 303 303 303 303 302 301 301 300 298 295 293 294 295 296 296 298 301 302 301 301 301 300 300 299 299 298 298 298 298 297 297 297 296 296 295 295 295 295 295 295 296 296 297 297 298 298 298 298 299 299
302 302 302 302 302 303 303 303 303 303 303 303 303 303 303 303 303 302 301 300 299 297 294 292 294 296 296 297 298 300 301 301 301 300 300 299 299 298 298 298 297 297 297 297 297 296 295 294 294 294 295 295 296 296 296 297 297 297 297 298 298 298 299
301 301 301 301 301 302 302 302 303 303 303 303 303 303 303 303 303 302 301 299 298 296 293 292 293 295 296 297 298 299 300 301 300 300 299 299 298 298 298 297 297 297 297 297 296 295 294 294 294 294 295 296 296 296 296 296 296 297 297 298 298 298 298
301 301 301 301 301 301 301 302 302 302 302 302 302 302 302 303 302 302 302 299 297 296 293 291 292 295 296 297 298 299 300 300 300 299 299 299 298 298 297 297 297 296 296 296 295 294 293 294 294 295 296 296 296 296 296 296 296 296 297 297 297 297 297
301 301 301 301 301 301 301 302 302 302 302 302 302 302 302 302 302 302 302 300 298 295 292 291 292 294 296 297 298 299 300 300 299 299 299 298 298 298 297 297 296 296 296 296 294 293 293 293 294 295 296 296 296 296 296 296 296 296 296 296 296 296 295
300 300 300 300 301 301 301 301 301 301 301 301 301 301 301 301 301 301 302 301 299 296 292 291 292 293 295 296 297 298 299 299 299 299 298 298 298 298 297 296 296 295 295 295 294 292 292 293 293 295 296 295 295 295 295 296 295 295 295 294 294 295 295
300 300 300 300 301 301 301 301 301 301 300 300 300 300 301 300 300 300 301 301 300 297 294 292 291 292 294 296 298 298 298 299 299 299 298 298 297 297 297 296 296 295 295 295 294 293 293 293 293 295 295 295 295 295 295 295 294 294 294 294 294 294 294
300 300 300 300 301 301 301 301 300 300 300 300 300 300 300 300 299 299 299 300 300 299 296 293 291 292 292 294 297 299 298 298 299 298 298 298 297 297 297 296 295 294 294 294 293 293 293 293 293 295 295 295 295 295 295 295 294 294 294 294 294 294 294
300 300 300 300 300 301 301 300 300 300 300 300 300 300 300 300 300 299 298 298 299 299 298 294 292 291 292 292 295 298 298 297 298 298 298 297 297 297 296 296 295 294 294 293 293 293 293 293 293 295 295 294 294 294 294 294 294 295 295 295 295 294 294
300 300 300 300 301 301 300 301 300 300 300 299 299 299 299 299 299 300 299 298 297 298 299 296 293 291 292 291 293 296 297 296 296 298 298 297 297 297 296 296 296 295 294 293 293 293 293 293 293 294 295 294 294 294 294 294 294 295 295 295 295 295 294
300 300 300 300 300 300 300 301 300 300 299 299 299 299 299 299 299 299 299 299 298 297 298 297 295 292 292 292 292 294 296 296 295 296 298 297 296 297 296 296 296 295 294 293 293 293 293 293 293 294 294 294 294 294 294 294 295 295 295 295 295 295 295
300 300 300 300 300 300 300 301 300 300 299 300 300 300 300 300 300 299 299 299 299 299 298 298 297 294 292 293 293 293 295 295 294 295 297 297 296 296 296 296 296 295 294 294 293 293 293 294 294 294 294 294 294 294 294 295 295 295 295 295 295 295 295
301 301 301 300 300 300 301 301 300 300 300 300 301 301 300 300 300 300 299 299 299 300 299 298 297 294 293 293 293 294 294 294 294 294 296 297 296 296 296 296 295 294 294 294 294 293 294 294 294 294 294 294 294 294 294 295 295 295 295 295 295 294 294
301 301 301 301 300 300 300 301 301 301 301 301 301 300 300 300 300 299 299 299 298 299 299 298 297 295 293 293 294 294 294 294 294 294 295 296 296 296 296 295 295 294 294 294 294 293 294 294 294 294 294 294 294 294 294 295 295 295 295 295 294 294 294
302 301 301 301 301 301 301 300 300 301 301 300 300 300 299 299 300 299 299 299 299 298 298 297 296 295 294 293 294 294 293 294 294 293 295 296 295 295 295 295 295 294 294 294 294 294 294 294 294 294 294 294 294 294 294 294 294 295 295 294 294 294 293

ECMWFFLT1_925_thetae_093.txt.gz
Theta_e
329 327 327 327 324 322 321 320 319 318 317 317 316 316 316 316 315 315 316 316 316 316 316 315 314 314 314 314 313 313 313 314 314 313 313 313 313 313 313 313 313 314 316 316 315 316 317 317 316 315 313 312 312 313 312 311 311 310 310 312 312 314 317
328 326 326 325 323 321 319 318 317 316 316 316 315 315 315 315 314 314 314 315 315 314 315 314 312 311 311 311 311 311 312 312 311 311 311 311 311 311 311 312 312 313 315 314 313 313 314 315 315 313 311 311 311 311 310 309 309 309 310 311 311 313 313
326 326 325 323 321 320 318 317 316 315 315 315 314 313 313 313 313 312 312 313 313 313 314 313 312 311 311 311 311 311 311 311 310 311 311 311 311 311 311 311 312 313 313 313 311 311 312 312 312 311 311 311 310 309 309 308 307 308 308 309 310 310 309
325 325 324 322 320 319 317 316 315 314 314 312 311 311 311 311 311 310 311 312 312 312 313 313 312 312 311 312 312 311 311 311 311 311 310 310 310 310 310 311 311 311 311 310 309 309 309 310 310 310 310 309 309 308 307 306 306 306 306 307 308 307 306
324 324 323 321 319 317 316 315 314 313 312 311 309 309 309 309 309 309 310 311 311 311 312 312 311 310 311 311 311 311 310 310 310 310 309 309 309 309 310 309 309 308 308 308 307 307 307 308 308 309 308 307 306 306 306 305 305 304 305 305 305 304 305
324 324 323 321 318 316 315 314 313 312 311 310 309 308 308 308 309 309 309 309 310 310 310 310 308 308 309 310 310 310 309 308 308 308 308 308 308 308 308 307 306 306 307 306 305 305 306 306 307 306 306 305 305 305 304 304 304 304 304 303 303 303 303
322 321 320 319 317 315 314 313 312 311 311 310 309 308 307 307 308 308 308 308 308 308 308 308 307 306 307 308 307 308 308 307 307 307 307 307 307 306 306 305 304 304 305 305 304 305 305 304 304 303 303 303 303 303 303 303 303 303 303 302 302 302 302
319 319 317 316 315 314 313 312 311 310 309 309 308 307 306 306 306 306 307 307 307 306 306 306 306 306 306 306 306 306 307 306 306 306 306 306 306 305 304 304 303 303 304 303 303 303 302 301 301 301 301 301 301 301 302 302 301 301 301 301 301 301 301
317 317 316 314 313 313 312 311 309 308 308 307 307 307 306 306 305 305 305 306 306 306 306 305 305 305 305 305 305 306 306 306 306 306 306 305 306 305 304 303 303 302 303 302 302 301 299 298 299 299 300 300 300 300 300 300 300 300 300 300 300 299 299
316 315 314 313 312 312 311 309 308 308 307 307 307 306 306 305 305 305 305 305 305 305 305 305 304 304 304 304 305 305 305 305 305 305 305 305 305 304 303 303 302 302 302 301 300 299 298 297 298 298 298 299 299 299 299 299 299 299 299 299 299 299 299
314 313 313 312 311 310 309 308 308 308 307 307 306 306 305 305 305 305 304 304 304 305 305 305 305 304 304 304 304 304 305 305 304 304 304 304 304 303 302 302 301 301 300 300 299 298 297 297 297 297 297 298 298 298 298 298 298 298 298 298 298 298 298
313 312 312 311 310 310 309 308 308 308 307 306 306 305 305 304 304 304 303 303 303 304 304 304 305 304 304 304 304 304 304 304 303 303 303 303 303 302 301 301 300 300 299 298 297 297 297 297 297 297 296 297 297 297 297 297 297 298 298 298 298 298 298
312 312 312 311 310 309 308 308 308 307 306 306 305 304 304 303 303 303 302 302 302 302 303 303 304 304 304 304 304 304 304 303 303 303 303 302 302 301 301 300 299 299 297 296 297 297 297 297 297 296 296 296 296 296 297 297 297 297 297 297 297 297 297
311 311 310 309 309 308 307 307 307 306 306 305 305 304 303 303 302 301 301 301 301 301 302 302 303 304 304 304 304 304 304 303 303 303 302 302 301 301 300 299 298 298 297 296 297 297 297 297 296 296 296 296 296 296 296 296 297 297 297 296 296 297 297
310 310 309 309 308 308 307 307 307 306 306 306 305 304 303 302 301 300 299 298 298 299 300 301 303 304 304 304 304 304 303 303 303 302 302 301 301 300 299 299 298 297 297 297 297 297 296 295 295 295 295 295 296 296 296 296 296 296 296 296 296 297 297
310 309 308 307 307 307 307 306 306 306 306 305 304 304 303 302 300 299 298 296 295 296 298 300 303 304 304 304 304 304 303 302 302 302 301 300 300 299 299 298 298 297 297 297 297 296 294 294 294 294 294 295 295 295 295 296 296 296 296 296 296 297 297
308 308 307 307 307 306 306 306 306 305 305 304 304 304 302 301 299 298 297 295 294 295 297 300 303 303 303 304 304 303 303 302 302 301 301 300 299 299 299 298 297 297 297 297 296 294 293 293 294 294 294 294 295 295 295 296 296 296 296 297 297 296 296
307 307 307 307 306 306 306 306 305 305 305 304 303 303 301 300 298 296 294 294 295 296 297 300 302 303 303 303 303 303 303 302 301 301 300 299 299 298 298 298 297 297 297 296 295 293 293 293 293 294 294 295 295 295 295 296 296 296 296 296 296 296 296
307 306 306 306 306 306 305 305 305 305 305 304 303 302 301 301 298 294 293 294 295 296 297 299 301 302 302 303 303 302 302 301 300 300 300 299 298 298 298 298 298 297 296 296 295 294 293 293 293 294 295 295 295 295 295 296 296 296 296 296 296 296 296
306 306 306 305 305 305 305 305 305 305 304 304 303 302 302 301 298 294 293 294 295 296 297 298 300 301 302 302 302 302 301 300 300 300 300 299 298 298 297 298 297 297 296 296 295 294 293 293 293 293 294 295 295 295 295 296 295 295 295 295 295 295 295
306 305 305 305 305 305 305 305 305 304 304 303 302 302 301 301 298 295 293 294 295 296 297 298 299 300 301 301 302 301 301 300 299 299 299 299 298 297 297 297 297 297 296 296 295 294 293 293 293 293 294 295 295 295 295 295 295 295 295 295 295 295 295
305 305 305 305 305 305 305 305 305 305 304 303 302 302 300 298 296 294 293 294 295 296 297 297 298 299 300 301 301 301 301 300 300 299 299 298 298 297 297 297 297 296 296 296 295 294 293 293 293 293 293 294 294 295 295 295 295 295 295 295 295 295 295
304 305 304 304 304 304 304 305 304 304 304 302 302 300 296 294 293 293 293 294 295 296 296 297 297 298 299 300 300 300 300 300 300 298 298 298 298 297 297 297 297 296 296 295 294 293 293 293 293 293 293 294 294 295 295 295 295 295 295 295 294 295 295
304 304 304 304 304 304 304 304 304 304 303 302 302 299 295 292 292 292 292 293 294 295 296 296 297 298 299 299 300 300 300 300 300 298 298 298 298 297 297 297 296 296 295 294 293 293 293 293 293 294 294 294 294 294 294 295 295 295 295 295 294 294 295
304 304 304 304 304 304 304 304 304 304 303 303 302 301 298 294 292 291 292 292 293 294 295 296 297 298 298 299 299 300 299 299 299 298 297 298 298 297 297 296 296 295 294 294 293 293 293 293 293 294 293 294 294 294 294 294 295 295 295 295 294 294 295
304 304 304 304 304 304 304 304 304 304 303 303 302 302 301 298 295 292 291 291 292 292 293 295 296 298 298 298 298 298 299 299 299 299 298 298 298 297 297 296 295 295 294 294 294 293 293 294 294 294 294 294 294 294 294 294 294 294 295 295 294 294 295
304 304 304 304 304 304 304 304 304 303 303 303 302 302 301 301 300 297 293 291 291 291 291 292 295 297 298 298 297 297 297 298 298 298 298 298 298 297 296 296 295 295 294 294 294 294 294 294 294 294 294 294 294 294 294 294 294 294 294 294 294 294 294
303 303 303 303 303 303 303 302 302 302 302 303 302 302 301 301 301 300 298 294 292 292 291 291 292 294 296 297 297 296 296 296 297 298 298 298 298 297 296 296 295 295 295 294 294 294 294 294 294 294 294 294 294 294 294 294 294 294 294 294 294 294 294
303 303 303 302 302 302 302 302 301 301 301 301 302 302 302 301 301 301 300 297 294 293 292 291 290 291 293 295 296 295 294 293 295 297 297 297 297 297 296 296 296 296 295 294 294 294 294 294 294 294 294 294 294 294 294 294 294 294 294 294 294 294 294
302 302 302 302 302 302 302 302 301 301 300 300 300 300 301 301 301 301 299 297 296 295 294 292 291 290 291 292 293 293 292 291 292 295 297 297 297 297 297 297 296 296 294 294 294 294 294 294 294 294 294 294 294 294 294 294 294 294 294 294 294 294 293
302 302 302 302 302 301 301 301 301 301 300 299 297 296 297 298 299 298 297 296 297 297 295 293 291 290 291 291 292 292 292 291 291 294 296 296 296 296 296 296 295 295 294 295 295 294 294 294 294 294 294 293 294 294 294 294 294 293 293 294 293 293 293
302 302 302 301 301 301 301 300 300 300 300 299 298 298 297 297 298 298 298 298 298 297 296 294 292 290 291 292 292 293 293 292 292 293 295 296 296 296 295 295 295 295 295 295 294 294 294 294 294 294 294 294 293 294 294 294 294 293 293 293 293 293 293
302 301 301 301 301 301 301 301 301 300 300 300 300 300 300 299 299 299 299 299 299 298 297 295 293 291 291 292 292 293 293 292 293 294 295 295 295 295 295 294 294 294 294 294 294 294 294 294 294 294 294 294 293 293 294 294 293 293 293 292 292 293 293
301 301 301 301 300 300 300 300 300 300 300 300 300 300 300 300 300 300 300 300 300 299 297 296 294 292 290 291 292 292 293 293 293 294 295 295 295 295 294 294 294 294 294 295 295 294 294 294 294 294 294 294 293 293 294 294 293 292 292 292 292 292 293
301 301 301 301 300 300 300 300 300 300 300 300 300 300 300 300 300 300 300 300 300 299 297 296 295 292 290 290 291 292 293 293 294 294 295 294 295 295 294 294 294 294 295 295 295 294 294 294 294 294 294 294 293 293 293 293 293 292 292 292 292 292 293
301 301 301 301 301 301 300 300 300 300 299 299 300 300 301 300 300 300 300 300 300 299 297 296 295 292 290 290 291 292 293 293 294 294 294 294 294 294 294 294 294 295 295 295 295 294 294 294 294 294 294 294 293 293 293 293 292 292 291 292 292 292 292
301 301 301 301 301 300 300 300 300 299 299 300 301 301 301 301 300 300 300 300 300 299 297 296 294 292 290 290 291 292 293 293 294 294 294 294 294 293 294 294 294 295 295 295 295 294 294 294 294 294 294 294 293 293 293 293 292 291 291 291 291 292 292

ECMWFFLT1_925_thetae_096.txt.gz
Theta_e
327 324 322 322 321 319 318 318 318 317 316 316 316 315 315 315 315 316 316 315 314 313 311 310 310 310 310 310 310 310 310 310 310 310 311 310 310 311 312 312 312 310 308 308 309 311 313 312 310 308 307 307 306 305 303 301 302 302 304 304 302 301 303
326 323 322 321 319 318 317 316 316 315 315 315 315 314 314 314 314 314 314 314 313 311 310 310 311 311 310 310 311 310 310 310 310 310 310 309 310 310 310 310 310 308 307 306 306 308 309 310 309 307 306 305 304 303 302 300 301 301 303 302 301 301 302
325 323 321 319 318 317 316 314 314 313 313 313 313 313 312 312 312 313 313 313 313 311 311 311 311 311 310 310 310 310 310 309 309 308 308 308 308 308 308 307 307 307 306 305 305 306 307 307 307 306 305 303 302 302 301 300 300 301 302 301 300 301 301
324 322 320 318 317 315 314 313 312 311 311 311 311 311 310 311 312 312 312 312 311 311 311 311 311 311 310 309 309 309 308 308 308 308 307 307 306 306 305 305 305 305 304 304 304 304 304 304 304 303 302 301 301 301 300 299 299 299 301 300 299 300 300
324 322 320 318 316 315 313 312 311 310 309 308 309 309 309 310 311 311 311 310 309 309 309 310 310 310 309 308 308 307 307 307 307 306 306 305 304 304 304 303 303 303 302 301 301 300 301 301 301 301 300 300 300 300 298 298 298 298 300 299 298 299 298
323 322 319 317 315 314 313 312 311 309 307 307 308 308 308 309 309 309 309 308 307 307 308 309 308 308 308 307 306 306 306 306 306 305 304 304 303 303 303 302 302 301 300 299 297 298 298 299 299 299 299 299 299 298 298 297 297 298 298 298 297 298 298
322 320 318 315 314 314 313 312 311 309 307 307 308 308 307 307 307 307 307 307 306 306 306 307 306 306 306 306 306 305 305 305 305 305 304 303 302 302 302 301 301 300 298 296 296 296 297 297 298 298 298 297 297 297 297 297 297 297 297 297 297 297 297
321 319 316 314 314 313 313 312 310 308 307 306 306 307 307 307 306 306 306 306 306 305 305 305 305 306 305 305 305 305 305 305 305 304 303 302 302 301 301 301 300 298 296 295 296 296 296 296 296 297 297 297 296 296 296 296 296 296 297 297 297 297 297
320 317 314 313 313 313 312 311 309 308 307 306 305 305 306 306 306 305 305 305 304 304 304 304 304 305 305 305 305 305 304 304 304 303 302 302 301 301 301 300 298 296 295 296 296 296 296 296 296 296 296 296 296 296 296 296 296 296 296 296 296 296 296
318 316 314 313 312 312 311 310 308 307 306 305 305 305 304 305 305 305 305 304 304 304 304 304 304 304 304 304 304 303 303 303 303 302 302 301 301 300 299 297 296 295 296 296 296 296 295 295 295 295 295 296 296 296 295 296 296 296 296 296 296 296 296
316 314 313 312 311 310 308 307 306 306 306 305 305 304 304 304 304 304 304 304 304 303 303 303 304 304 304 304 303 303 302 302 302 302 301 301 300 300 298 296 295 296 296 296 295 294 294 294 294 295 295 295 295 295 295 295 295 296 296 296 296 296 296
314 313 312 311 310 309 307 306 306 306 305 305 304 304 303 303 303 303 303 304 304 304 303 303 303 304 304 304 303 303 302 302 302 301 301 300 299 299 298 296 296 296 296 295 293 292 293 294 294 294 295 295 295 295 295 295 295 295 296 296 295 295 295
313 312 311 310 309 308 307 307 306 305 304 304 304 303 303 302 302 302 302 303 303 304 304 303 303 304 304 303 303 303 302 302 301 301 300 299 299 298 297 296 296 296 296 294 293 292 293 294 294 295 295 295 295 295 295 295 295 295 295 295 295 295 295
312 311 310 309 308 308 307 306 305 304 304 303 303 302 302 301 301 301 301 302 303 303 304 304 303 304 304 303 303 303 302 301 301 300 300 299 299 298 297 297 297 296 295 294 293 293 293 294 295 295 295 295 295 295 295 295 295 295 295 295 295 295 295
311 310 309 309 308 307 307 306 305 304 303 303 302 301 300 299 299 298 299 300 302 303 304 304 303 303 303 303 302 302 302 301 301 300 299 299 298 297 297 297 297 296 295 295 294 293 293 293 294 295 295 295 295 295 295 295 295 295 295 295 295 295 295
311 310 309 308 308 307 306 305 305 304 303 302 302 301 299 297 296 295 296 298 300 303 304 304 303 303 303 302 302 302 301 301 300 300 299 298 298 297 297 297 296 296 295 295 294 293 293 293 293 294 294 294 295 295 295 295 295 295 295 295 295 295 295
310 308 308 307 307 306 306 305 305 303 303 302 302 300 298 295 294 293 294 296 299 302 303 303 303 303 303 302 302 301 301 300 300 299 299 298 297 297 297 297 296 296 295 295 294 293 293 293 293 293 293 294 294 295 295 295 295 295 295 295 295 295 294
309 308 307 307 306 306 306 305 304 303 303 302 301 298 295 293 293 293 294 295 299 302 303 303 303 303 302 302 302 301 300 300 299 299 298 298 297 297 297 297 296 296 295 295 294 293 293 293 293 293 293 293 294 294 294 294 294 295 295 295 295 294 294
308 307 307 306 306 306 305 305 304 303 303 302 299 296 294 293 293 294 295 296 299 301 303 303 302 302 302 302 301 300 300 300 299 299 298 298 297 297 297 297 296 296 295 294 293 293 293 293 293 293 293 293 293 293 293 294 294 294 294 294 294 294 294
307 307 306 306 305 305 305 304 303 303 302 301 298 296 293 293 293 294 295 297 299 300 302 302 302 302 302 301 300 299 299 299 299 298 298 297 297 297 296 296 296 296 294 293 293 293 293 293 293 293 293 293 293 293 293 293 294 294 294 294 294 294 294
306 306 306 305 305 305 305 304 303 303 301 300 298 296 293 293 294 295 296 297 298 300 301 301 301 302 301 301 300 300 299 299 299 298 298 297 297 297 296 297 296 295 294 293 293 293 293 293 293 293 293 293 293 293 293 293 293 294 294 294 294 294 294
306 306 306 305 305 305 305 304 303 302 301 300 298 295 292 293 294 295 296 297 298 299 300 301 301 301 301 301 300 300 299 299 298 298 298 297 297 297 297 297 296 294 294 293 293 293 293 293 293 293 293 293 293 293 293 293 293 293 293 293 294 294 294
305 305 305 305 305 304 304 304 302 302 301 299 296 293 293 294 294 295 296 297 297 298 299 299 300 300 300 300 300 300 299 299 298 298 298 298 297 297 297 296 295 294 294 294 293 293 294 294 293 294 294 294 294 293 293 293 293 293 293 293 293 293 293
305 305 305 305 305 304 304 303 302 301 299 295 293 292 293 293 294 295 296 296 297 298 298 298 299 299 299 300 299 299 299 298 297 297 298 298 297 297 296 296 295 295 294 294 294 294 294 294 294 294 294 294 294 293 293 293 293 293 293 293 293 293 293
305 305 305 305 305 304 304 303 302 300 296 292 291 292 292 292 293 294 295 296 296 297 297 298 298 299 299 299 299 299 299 298 298 298 298 298 297 296 296 295 295 295 295 294 294 294 294 294 294 294 294 294 293 293 293 293 293 293 293 293 293 293 293
304 304 304 304 304 304 303 302 301 300 297 294 292 291 291 291 292 292 293 294 295 296 297 297 298 298 298 298 298 298 298 298 298 298 298 298 297 296 296 295 296 296 295 294 294 294 294 294 294 294 294 294 294 293 293 293 293 293 293 293 293 293 293
304 304 304 304 304 304 303 302 301 301 300 298 296 294 292 291 291 291 291 292 292 294 295 296 297 298 297 297 297 297 297 297 297 298 298 297 297 296 295 296 296 295 294 294 294 294 294 294 294 294 294 294 293 293 293 293 293 293 293 293 293 293 293
304 304 304 304 304 304 303 302 302 302 301 301 300 299 297 295 293 291 291 291 291 291 292 293 295 296 297 296 295 293 294 296 297 297 297 297 297 296 296 296 296 295 294 294 294 294 294 294 294 293 293 293 293 293 293 293 293 293 293 292 292 292 292
304 304 304 304 304 304 303 303 302 302 302 302 301 301 300 299 296 293 291 291 290 290 290 291 292 293 294 294 292 291 291 294 296 297 296 297 296 296 296 296 296 295 294 294 294 294 294 294 294 293 293 293 293 293 293 293 293 293 292 292 292 292 292
304 304 304 304 303 303 303 303 303 302 302 302 301 301 301 300 296 294 293 292 291 291 290 290 290 290 291 291 291 290 291 293 295 296 296 296 296 295 295 295 295 294 294 294 294 294 294 294 294 293 294 294 293 293 293 293 292 292 291 292 292 292 292
304 303 303 303 303 303 303 303 303 302 302 302 301 301 301 299 295 294 295 294 293 293 291 290 290 290 290 290 290 290 291 293 294 295 295 295 294 294 294 294 294 294 294 294 294 294 294 294 294 294 294 293 293 293 293 292 292 291 291 292 292 292 292
303 303 303 303 302 302 302 302 302 302 302 302 302 301 300 297 295 296 297 296 296 294 293 291 290 290 290 290 290 291 292 293 294 294 294 294 294 294 294 294 294 294 294 294 294 294 294 294 294 294 294 293 293 293 292 292 291 291 291 291 291 291 291
303 303 302 302 301 301 301 301 300 299 299 299 299 299 297 296 297 298 298 298 297 295 294 292 290 290 290 290 290 291 293 294 294 294 294 294 293 294 294 294 294 294 294 294 294 294 294 294 293 293 293 293 293 293 292 291 291 291 291 291 291 291 291
303 302 301 301 301 301 301 300 298 296 295 295 296 297 297 298 299 299 299 299 298 296 294 293 291 290 290 290 291 292 293 294 294 294 294 294 293 294 294 294 294 294 294 295 294 294 294 293 293 293 292 292 292 292 291 291 291 291 291 291 291 291 291
302 301 301 301 301 301 300 299 298 297 297 298 298 298 299 299 299 299 299 299 299 297 295 294 292 290 290 290 291 292 293 294 294 294 293 293 293 294 294 294 294 294 295 295 294 294 294 293 293 292 292 292 292 291 290 290 291 291 291 291 290 291 291
301 301 301 301 300 300 300 299 299 299 299 300 300 299 299 299 299 299 299 299 299 297 295 294 292 290 290 291 292 292 293 294 293 293 293 293 294 294 294 295 295 295 295 295 294 293 293 293 293 292 292 291 291 291 290 290 290 290 290 290 290 290 291
301 301 301 300 300 300 300 300 300 300 300 300 300 299 300 300 299 299 299 299 299 298 296 294 293 291 290 291 292 293 293 293 293 293 293 294 294 294 295 295 295 295 295 294 294 293 293 293 293 292 292 291 291 291 290 290 290 290 290 290 290 290 290

ECMWFFLT1_925_thetae_102.txt.gz
Theta_e
327 324 322 321 321 320 319 319 318 318 318 318 317 317 316 315 314 313 312 311 309 309 308 308 308 308 308 308 308 308 308 308 307 306 305 305 304 302 301 300 299 297 297 299 302 304 307 307 303 297 295 295 295 295 295 295 297 297 295 294 295 294 294
326 323 320 320 319 319 319 318 318 318 318 317 317 317 315 314 313 312 310 309 309 309 309 308 308 308 307 307 307 307 306 306 305 305 304 302 301 300 298 297 297 295 295 295 297 297 298 302 304 299 295 296 295 295 295 295 296 296 295 294 294 294 294
323 321 319 319 318 319 319 318 317 317 317 316 316 315 314 313 312 311 309 309 309 309 309 308 307 307 307 306 306 306 306 305 304 303 302 300 298 296 295 295 295 295 295 295 295 296 295 297 300 298 295 296 296 296 295 294 295 296 294 294 294 294 294
323 321 320 318 318 319 319 317 316 316 315 315 314 313 313 312 312 311 309 308 308 308 308 307 306 306 306 305 305 305 304 303 302 300 299 297 295 294 294 294 294 294 295 295 295 295 295 296 298 298 295 295 296 295 294 294 294 295 295 293 294 294 294
325 323 321 319 319 319 318 317 316 314 314 313 312 312 312 312 311 311 310 308 308 307 307 306 306 305 305 304 303 303 302 300 299 298 296 295 294 294 293 293 293 293 293 294 294 294 294 295 296 297 295 295 296 295 294 294 293 294 294 293 293 294 293
326 324 322 320 319 318 318 317 315 313 311 311 311 311 311 311 310 310 309 308 307 307 306 306 305 304 304 303 302 301 300 299 297 296 294 294 293 293 293 293 293 293 293 293 293 294 294 294 295 295 295 294 295 294 293 293 293 294 294 293 293 293 293
325 323 322 320 319 318 317 315 313 311 310 310 310 310 310 309 309 309 309 308 306 306 305 305 304 304 303 302 301 301 300 298 296 295 293 293 293 293 293 293 293 293 293 294 294 294 294 294 295 295 295 294 294 294 293 293 293 294 294 293 293 293 293
324 322 321 319 318 317 315 313 311 310 309 309 309 308 308 308 308 308 308 307 306 305 304 304 303 303 302 302 301 300 299 297 295 294 293 293 293 293 292 292 293 293 293 294 294 294 294 294 294 294 294 295 295 294 294 294 293 293 293 293 293 293 293
323 322 320 318 316 315 313 311 309 308 308 308 308 307 306 306 306 307 306 306 305 305 304 303 303 302 302 301 300 299 298 296 295 294 293 294 294 293 293 293 293 293 293 293 294 294 294 294 294 294 294 294 295 294 294 294 294 294 293 293 293 293 293
323 321 319 316 314 312 310 310 309 308 307 307 307 306 306 305 305 306 306 305 305 304 304 303 302 302 301 301 300 299 298 296 295 294 294 294 294 294 293 293 293 292 293 293 293 294 294 294 294 294 294 294 294 294 294 294 294 294 294 293 293 293 293
322 320 318 315 313 311 309 309 308 307 306 306 306 306 305 305 304 305 305 305 304 304 303 303 302 301 301 300 299 299 298 296 294 294 294 294 294 294 294 293 293 293 292 292 293 293 293 293 293 293 293 293 293 294 294 294 293 294 294 293 293 293 293
320 318 316 314 312 310 309 308 308 307 306 305 305 305 305 304 304 304 304 304 303 303 302 302 301 301 300 300 299 298 297 296 295 294 295 295 295 294 294 294 293 293 292 292 293 292 292 293 293 293 293 293 293 293 293 293 293 293 293 293 293 293 293
319 317 315 312 311 309 308 308 307 306 305 305 305 304 304 304 303 304 303 303 303 302 302 301 301 301 300 300 299 298 297 295 295 295 295 295 295 294 294 294 293 293 293 292 292 293 293 293 293 293 293 293 293 293 292 293 293 293 293 293 293 293 293
317 315 313 311 310 308 307 307 306 305 305 305 304 304 303 303 303 303 303 303 303 302 302 301 301 301 300 300 299 297 296 295 295 295 295 295 295 295 294 294 294 293 293 293 292 293 293 293 293 293 293 293 293 293 292 292 293 293 293 293 293 293 293
315 313 311 310 309 308 307 306 305 304 304 304 304 303 303 303 302 303 303 303 302 302 302 301 301 301 300 300 299 297 296 295 295 295 295 295 295 295 294 294 294 293 293 293 293 293 293 293 293 293 293 293 293 293 293 292 292 292 293 293 292 292 292
313 312 310 309 308 307 306 305 304 304 303 303 302 303 303 303 302 302 302 303 302 302 302 301 301 301 300 300 298 297 297 296 296 295 295 295 295 295 294 294 294 293 293 293 293 293 293 293 293 293 293 293 293 293 293 293 292 292 292 292 292 292 292
312 310 309 308 307 306 306 305 304 303 303 302 302 302 302 302 303 302 302 302 302 302 302 301 301 301 300 300 299 298 298 297 296 296 296 296 296 295 295 295 294 293 293 293 293 293 293 293 293 294 294 293 293 293 293 293 293 292 292 292 292 292 292
311 309 308 307 307 306 305 304 303 303 302 301 300 300 300 302 302 303 302 302 302 302 302 301 301 300 300 300 299 298 298 298 297 297 296 296 296 296 295 295 294 293 293 293 293 293 293 293 294 293 293 293 293 293 293 293 292 292 292 292 292 292 292
309 308 308 307 306 305 304 303 303 302 302 301 298 297 298 300 302 302 302 302 302 302 302 301 301 300 300 299 299 299 299 298 298 297 296 296 296 296 295 295 294 294 293 293 293 294 294 294 294 293 293 293 293 293 293 292 292 292 292 292 291 291 291
309 308 308 307 305 304 303 303 303 302 302 300 296 293 295 298 301 302 302 302 302 302 302 301 301 300 300 299 299 299 298 298 298 297 297 296 296 296 295 295 295 294 294 294 294 294 294 293 293 293 293 293 293 293 292 293 292 292 292 291 291 291 291
308 308 307 306 304 303 303 303 302 302 302 298 294 292 294 297 300 302 302 302 302 302 302 301 301 300 299 299 299 298 298 298 298 297 297 296 296 296 296 295 295 295 294 294 294 294 293 293 293 293 293 293 293 293 293 292 292 292 292 291 291 291 291
307 307 306 304 303 303 303 302 302 302 299 295 293 293 295 297 300 301 302 302 302 301 301 301 300 299 299 299 298 298 298 298 298 297 297 297 296 296 296 295 295 295 295 294 294 294 294 294 293 293 293 293 293 293 292 292 292 292 291 291 291 291 291
306 306 305 303 303 302 302 302 302 300 296 293 293 294 296 297 300 301 301 301 301 301 301 300 300 299 299 299 299 299 298 297 297 297 297 297 297 296 296 295 295 295 295 294 294 294 294 293 293 293 293 293 292 292 292 292 291 291 291 291 291 291 291
306 305 304 303 303 302 302 302 301 299 295 293 294 295 296 298 299 300 300 301 301 301 300 300 300 300 300 299 299 299 298 297 297 297 297 297 297 297 296 296 295 295 294 293 294 294 293 293 293 293 292 292 292 291 291 291 291 291 290 290 290 290 291
305 304 304 303 303 302 302 302 301 298 294 293 294 295 296 297 298 299 300 300 300 300 300 300 300 300 299 299 299 299 298 298 297 297 297 297 297 297 296 296 295 294 294 293 294 294 293 293 293 293 292 292 291 290 290 290 290 290 290 290 290 290 291
305 304 304 303 303 302 302 301 301 298 294 293 294 295 296 297 298 298 299 299 299 299 299 299 299 299 299 298 298 298 298 298 298 297 297 297 297 296 296 296 295 294 293 294 294 293 293 293 293 293 292 292 291 290 289 289 289 289 290 290 290 290 291
305 304 303 303 302 302 301 301 299 296 293 293 294 295 296 297 297 298 298 298 299 298 298 298 298 298 298 298 298 297 297 297 297 297 297 297 297 296 296 295 294 293 293 294 294 293 293 293 293 292 292 292 291 290 289 289 288 289 290 290 290 291 292
304 304 303 302 302 301 301 300 298 294 292 293 294 295 295 296 296 297 297 298 298 297 298 298 298 297 297 296 295 294 294 294 295 296 297 297 297 296 296 295 294 293 293 294 294 293 293 293 293 292 292 291 290 289 289 289 288 289 290 291 292 292 292
304 303 302 302 301 301 301 299 295 293 292 293 293 294 294 295 295 296 296 297 297 297 296 296 295 294 293 291 291 290 290 291 294 296 296 297 296 296 295 294 293 293 294 294 294 293 293 293 293 292 292 290 289 289 289 289 288 289 290 292 293 293 293
304 303 302 301 301 301 300 297 293 292 292 292 292 292 292 292 293 293 293 294 294 293 292 292 291 290 290 289 290 289 290 292 295 296 296 296 296 294 293 293 293 294 294 294 294 293 293 293 292 292 290 289 288 288 289 289 288 289 290 292 293 293 293
304 303 302 302 302 301 298 295 292 291 291 291 291 291 291 290 290 290 291 291 291 290 290 290 289 289 289 289 290 290 291 293 295 295 295 295 294 294 293 293 294 294 294 294 294 293 293 292 292 291 290 289 288 288 288 288 288 288 290 291 292 293 293
304 303 302 302 302 300 297 294 292 291 291 290 290 290 290 290 290 290 290 290 290 290 290 290 289 289 290 290 291 292 292 293 294 295 295 294 294 293 293 293 294 294 294 294 294 293 292 292 292 291 290 289 288 288 287 288 288 288 289 290 292 293 293
304 304 303 302 302 301 297 294 292 292 292 291 290 290 290 290 290 291 291 290 290 290 290 290 290 290 290 291 292 293 293 293 293 293 294 293 293 293 293 294 294 294 294 294 294 293 293 292 292 291 290 289 289 288 287 288 288 288 288 289 291 292 292
305 304 303 303 302 300 298 296 295 295 295 294 292 291 291 292 293 293 293 293 292 292 291 290 290 290 290 291 292 293 293 293 293 293 293 293 293 294 294 294 294 294 294 294 294 293 293 292 292 292 290 290 290 289 288 288 288 288 288 288 290 291 292
304 304 303 303 302 300 298 298 298 298 299 298 296 292 291 293 295 295 295 295 294 293 293 291 290 290 291 291 292 293 293 293 293 293 293 293 294 294 294 294 295 294 294 294 294 293 293 292 292 292 291 291 291 290 289 288 288 288 288 288 289 291 292
304 303 303 303 303 301 299 298 299 300 300 301 299 296 293 293 295 296 296 297 296 295 295 294 292 290 291 292 292 292 293 293 293 293 293 293 294 294 294 295 295 295 294 294 294 294 293 293 292 292 292 292 292 291 290 289 288 288 288 288 288 289 291
303 303 303 303 303 302 301 299 300 300 301 301 300 298 296 295 295 296 297 297 298 297 297 296 294 291 290 291 292 292 293 293 293 293 293 294 294 295 295 295 295 295 294 294 294 294 293 293 292 292 292 292 292 292 292 291 289 288 288 288 288 289 290

ECMWFFLT1_925_thetae_105.txt.gz
Theta_e
327 325 324 324 324 322 321 320 319 319 319 319 319 318 316 315 314 313 312 310 309 308 308 307 308 308 308 308 308 307 306 304 305 306 306 307 306 301 297 296 296 296 297 300 304 305 305 306 304 300 299 298 298 298 298 299 298 297 297 297 298 297 297
326 325 323 322 322 321 320 320 319 319 319 320 319 317 315 313 313 312 310 309 308 308 308 307 307 307 307 306 305 304 304 302 300 299 299 300 302 301 300 300 300 300 300 299 302 303 303 304 302 302 301 300 300 298 296 298 298 297 297 297 297 297 297
325 323 322 321 320 320 320 320 319 319 319 319 317 315 314 313 312 310 309 308 308 307 307 307 306 306 305 304 303 302 300 299 297 295 295 295 296 297 299 301 302 302 303 301 302 302 302 303 301 301 302 301 302 300 298 297 298 298 298 297 297 297 297
325 323 322 320 320 320 320 319 318 318 318 317 315 313 312 312 311 309 309 308 308 307 306 306 305 305 304 302 300 299 297 296 295 294 294 294 294 294 296 299 300 301 301 301 301 301 301 302 302 301 300 299 300 300 298 297 298 298 298 297 297 297 297
326 325 324 322 321 321 320 318 318 318 316 314 313 312 312 311 310 309 308 308 307 306 306 305 304 303 302 300 298 297 295 294 294 294 294 294 295 295 296 297 298 299 299 300 300 300 300 301 301 301 300 299 300 300 298 298 298 298 298 297 297 297 296
326 326 325 324 321 320 319 318 318 316 314 312 312 312 312 311 310 308 308 307 306 305 305 304 303 302 301 299 297 295 294 294 294 293 294 294 294 295 295 296 297 298 298 298 298 299 299 300 300 300 300 300 301 300 299 298 298 298 297 297 296 296 296
326 325 325 323 321 320 319 318 317 315 313 311 311 311 311 310 309 308 307 306 306 305 304 303 302 301 300 298 295 294 294 294 294 293 293 293 293 294 294 295 296 297 297 297 298 298 298 299 299 300 300 300 301 301 300 299 298 298 297 296 296 296 296
326 324 323 322 320 319 318 317 315 313 312 311 310 310 310 310 309 308 307 306 305 304 303 302 301 300 299 296 294 294 294 294 294 293 293 293 293 293 293 295 296 297 297 297 297 297 297 298 298 298 299 299 300 300 300 300 299 298 297 297 296 296 296
326 324 322 320 319 318 317 315 313 312 311 310 310 309 309 308 308 307 306 305 304 303 302 302 301 300 298 296 294 294 294 294 294 294 294 294 293 293 293 294 296 296 296 296 297 297 297 297 297 297 297 297 298 298 298 299 299 299 297 296 296 296 296
325 323 321 319 318 317 315 314 313 311 310 309 308 308 307 308 307 306 305 304 303 303 302 301 300 299 298 296 295 294 295 294 294 294 294 294 294 293 294 295 296 296 296 296 296 296 296 296 296 296 296 296 297 297 297 297 298 299 297 296 296 296 295
324 322 321 320 318 315 314 313 312 311 309 308 307 307 306 307 306 305 305 304 303 302 302 301 300 299 298 296 295 295 295 295 295 295 295 294 294 294 294 295 295 295 295 295 295 295 296 296 296 296 296 296 296 296 296 296 297 298 297 297 296 295 295
322 321 321 319 316 314 314 312 311 310 308 307 307 306 305 306 306 305 304 304 303 302 302 301 299 299 298 296 295 295 295 296 296 297 296 295 295 295 295 295 295 295 295 295 295 295 296 295 296 296 296 296 296 296 296 296 297 297 297 297 296 296 295
321 321 319 317 315 314 313 311 310 309 307 306 306 305 305 305 305 305 304 304 303 302 301 300 299 299 298 296 296 296 296 297 297 297 296 295 296 296 296 295 295 295 296 296 295 296 295 295 296 296 296 296 296 297 297 297 297 297 297 297 297 296 295
321 319 317 315 315 314 311 310 310 308 306 305 305 305 305 304 304 304 304 303 302 301 301 300 300 299 297 296 296 296 297 298 297 297 297 296 296 296 296 295 295 295 295 296 295 295 295 295 296 296 296 296 296 296 297 297 297 297 297 296 296 296 296
319 317 316 315 314 313 310 309 309 307 305 305 305 304 304 304 304 304 303 302 302 301 301 300 300 298 296 296 296 296 297 298 297 298 297 297 297 297 296 296 295 295 295 296 295 295 295 296 296 296 296 296 296 296 296 296 297 297 296 296 295 296 295
318 316 315 314 313 311 309 309 309 307 305 305 304 304 303 303 303 303 303 302 302 301 301 300 300 298 296 296 296 296 297 298 298 298 298 297 297 297 296 296 295 295 296 296 296 296 296 296 296 296 296 296 296 296 296 296 296 296 296 296 295 295 295
316 315 314 312 311 310 309 309 308 305 304 305 304 303 303 303 303 303 302 302 302 301 301 301 300 299 297 298 298 297 298 298 298 298 298 297 297 297 296 296 295 296 296 296 296 296 296 296 296 296 296 296 296 296 296 296 296 296 296 296 296 295 295
315 314 313 311 310 309 308 308 306 304 304 304 303 303 303 302 303 303 302 302 302 301 301 300 300 299 298 298 298 298 298 298 298 298 298 297 297 297 297 296 296 296 296 297 297 296 296 296 296 297 297 296 296 296 295 295 295 296 296 296 296 295 295
313 312 311 310 309 308 308 307 305 303 303 303 302 303 303 302 302 302 302 302 302 301 301 301 300 300 298 298 298 298 298 299 298 298 298 298 297 297 297 297 296 296 297 297 297 297 297 296 296 296 296 296 295 295 295 295 295 295 296 296 295 295 295
312 311 310 309 308 307 307 306 304 303 303 302 302 302 302 303 302 302 302 302 302 302 301 301 300 300 299 299 299 299 298 299 298 298 298 298 297 297 297 297 297 297 297 297 297 296 296 295 296 296 296 295 295 295 295 295 295 295 295 295 295 295 295
310 310 309 308 307 307 306 305 304 303 303 301 300 300 301 302 302 302 302 302 302 302 301 301 300 300 299 299 299 299 299 299 299 298 298 298 298 297 297 297 297 297 297 296 295 294 294 293 294 295 295 295 295 295 295 295 295 295 294 295 295 295 295
309 309 308 307 307 306 305 304 303 302 302 300 298 298 300 301 302 302 302 302 302 301 301 301 300 300 299 299 300 300 299 299 299 298 298 298 298 298 297 297 297 296 295 294 294 294 293 293 293 294 294 293 294 295 294 294 294 294 294 294 295 295 296
308 308 307 306 306 305 304 303 302 302 301 298 295 295 298 300 302 302 302 302 302 302 301 301 300 300 299 299 299 299 299 299 299 299 299 298 298 298 298 297 297 294 293 293 294 293 293 293 293 293 293 292 292 293 293 294 293 293 294 294 295 295 296
307 307 306 306 305 304 303 302 302 301 299 295 293 293 296 299 301 302 302 302 302 302 301 301 300 299 298 299 299 299 299 299 298 299 299 299 299 298 298 298 297 294 293 294 294 294 293 293 293 292 292 292 291 290 291 292 292 293 293 294 294 295 296
307 306 306 306 305 304 303 302 302 300 296 293 293 294 296 299 301 302 302 302 302 301 301 300 299 299 299 299 299 299 299 299 298 299 299 299 299 298 298 298 297 294 294 294 294 294 293 293 293 293 292 291 289 288 289 290 290 291 292 293 294 295 295
306 306 307 306 304 303 302 302 302 300 295 293 293 294 296 299 301 301 301 301 301 301 300 300 299 299 299 299 299 299 299 298 298 299 299 299 298 298 298 298 296 295 294 294 294 294 294 293 293 293 292 291 289 288 288 289 289 289 290 292 294 295 294
306 306 306 304 303 302 302 302 302 299 295 293 294 295 297 299 300 301 301 301 301 300 300 300 299 299 299 299 298 298 298 298 298 298 298 298 297 297 297 296 295 295 295 294 294 294 293 293 293 292 292 292 291 289 288 289 289 288 289 290 293 293 293
306 306 304 302 302 302 302 302 301 298 294 293 294 295 297 299 299 300 300 300 300 299 299 299 298 298 298 298 298 297 297 296 297 297 297 297 297 296 295 294 294 294 294 294 294 294 294 293 293 293 293 293 292 290 290 289 288 288 288 288 290 291 291
305 304 303 302 302 303 302 300 299 297 294 294 294 296 297 298 299 299 299 299 299 298 298 298 298 298 297 296 295 293 293 294 295 296 297 297 296 296 294 293 294 294 294 294 294 294 294 293 293 293 294 294 292 292 292 290 288 288 289 288 288 289 290
304 304 302 302 302 302 301 299 299 297 294 294 295 296 297 297 298 298 298 298 298 298 298 297 296 295 293 292 291 290 291 294 296 296 297 296 296 295 293 293 294 294 294 294 294 294 294 293 293 294 294 294 293 293 293 291 289 288 289 289 289 289 290
305 304 302 301 302 301 300 300 300 297 293 294 295 296 296 297 297 297 298 298 297 297 296 294 292 290 290 289 289 290 292 295 297 297 296 296 295 294 293 293 294 294 294 294 294 294 294 293 293 294 294 294 294 294 293 291 290 289 289 288 289 289 289
306 304 303 303 303 302 301 300 299 295 293 293 294 295 296 296 296 296 297 296 296 293 291 290 289 289 289 290 290 291 294 296 296 296 296 295 294 294 293 294 294 294 294 294 294 294 294 293 293 293 294 294 294 294 293 292 291 291 290 289 289 289 289
305 304 303 303 302 301 301 300 297 293 292 293 294 294 295 295 295 295 294 294 292 290 289 289 290 290 290 290 291 292 295 296 296 296 296 295 295 295 294 295 294 294 294 294 294 294 294 293 293 292 293 294 294 293 292 291 291 291 290 290 290 290 291
304 304 304 303 302 301 301 299 295 292 292 293 292 292 292 292 292 292 291 290 290 289 289 290 290 290 291 291 292 293 295 295 295 295 295 295 295 295 295 296 295 294 294 294 294 294 294 293 293 292 293 293 293 292 292 292 292 292 291 292 292 292 292
304 304 304 303 301 301 300 298 294 291 291 291 291 290 290 290 290 290 290 290 290 290 290 290 290 291 291 292 293 293 294 294 293 294 295 295 295 296 295 295 295 295 294 294 294 294 294 294 293 293 293 292 292 292 292 292 292 292 292 293 292 292 292
304 303 303 302 301 301 298 295 292 291 290 290 290 290 290 290 290 290 290 291 291 291 291 290 290 291 291 292 293 293 293 293 293 293 294 295 295 295 295 295 295 294 294 295 295 295 294 294 294 293 293 292 292 292 292 292 292 293 293 293 293 292 291
303 303 302 301 301 300 296 293 291 291 290 291 291 292 292 291 292 293 294 294 294 293 292 292 291 291 291 292 292 292 293 293 293 293 294 294 295 295 295 295 295 295 295 295 295 295 295 294 294 294 294 293 292 292 292 293 293 293 293 293 293 292 291

ECMWFFLT1_925_thetae_108.txt.gz
Theta_e
332 330 328 328 327 325 323 322 321 321 322 322 322 321 320 319 319 318 318 317 315 315 314 315 315 315 315 314 313 313 313 315 316 315 313 310 307 306 306 305 304 306 309 310 311 312 312 311 307 305 305 304 303 302 303 302 301 302 302 302 301 301 302
330 328 327 327 326 324 322 321 321 322 322 322 321 320 319 318 318 317 316 315 314 313 313 313 313 313 312 312 311 310 309 309 311 311 311 309 308 308 308 309 309 307 307 308 309 309 310 309 307 307 307 307 305 303 302 302 302 302 302 301 301 301 301
328 327 326 324 323 322 321 321 321 321 322 322 320 319 318 318 317 316 315 314 313 313 312 312 311 310 309 308 306 305 305 306 307 308 308 308 309 309 309 309 310 309 308 308 308 308 308 308 307 306 305 306 307 305 302 302 302 302 302 302 301 301 300
327 326 325 324 323 322 321 321 321 321 322 321 319 318 317 317 316 315 314 313 312 312 311 311 310 308 307 305 303 303 304 305 306 306 306 307 307 307 307 307 307 307 307 307 307 306 307 308 307 306 305 304 305 305 303 303 303 303 302 301 301 301 300
328 326 325 324 323 323 322 321 320 321 321 320 318 317 316 316 315 314 313 312 312 312 311 310 308 307 305 304 303 303 304 305 305 306 306 307 306 306 306 305 305 305 305 305 306 306 306 306 307 307 305 305 306 304 303 304 303 302 301 301 300 300 300
329 327 327 325 324 323 322 320 320 321 321 320 318 317 316 315 314 314 313 312 311 310 309 308 307 305 304 304 303 304 304 304 304 305 306 306 306 305 305 304 304 304 304 304 304 305 305 305 306 306 306 306 307 305 303 303 303 302 301 300 299 300 300
329 328 327 325 325 323 321 320 321 321 320 319 318 316 315 314 314 313 312 311 310 309 308 307 305 304 303 303 303 303 303 303 303 304 305 305 305 305 304 304 303 303 303 303 303 303 304 304 304 305 305 305 306 305 303 303 302 301 301 299 299 299 299
328 327 327 325 324 322 321 320 320 319 319 318 317 315 314 313 313 312 311 310 309 308 307 306 305 303 303 303 303 303 303 303 303 303 303 304 304 304 303 303 303 302 302 302 302 302 302 303 302 302 303 304 305 305 304 303 302 301 301 299 300 299 298
327 327 327 325 323 321 321 320 318 318 317 316 315 314 314 313 313 312 311 310 309 308 306 305 304 303 303 303 302 302 303 302 302 302 302 303 303 303 303 302 302 302 302 302 302 302 302 302 302 301 301 302 303 303 303 303 303 302 301 300 300 299 298
327 327 327 324 322 321 320 317 316 316 316 315 314 314 314 313 312 311 310 309 308 307 306 305 304 303 303 303 303 303 303 302 302 302 302 302 303 302 302 302 302 301 301 301 301 301 301 301 301 301 301 300 301 301 302 302 303 303 301 300 300 299 298
326 327 325 322 321 321 319 315 315 316 315 314 313 313 313 312 311 310 310 309 308 307 306 305 304 303 303 303 303 302 302 302 302 302 301 302 302 302 301 301 301 301 301 301 301 301 301 301 300 300 300 300 300 301 301 302 302 302 301 300 300 299 299
325 326 324 321 321 320 317 314 315 315 314 312 312 312 312 311 311 310 309 308 307 307 305 304 304 303 303 303 302 302 302 302 302 302 301 301 301 301 301 301 301 301 301 301 301 300 300 300 300 300 300 300 301 301 301 301 302 302 301 300 300 299 299
324 324 322 321 320 317 315 315 315 314 312 312 312 312 311 311 310 310 309 308 307 306 305 305 304 303 303 303 303 302 302 301 301 302 301 301 301 301 300 301 301 301 301 301 300 300 300 300 300 300 300 300 300 300 301 301 301 302 301 300 299 299 298
324 323 321 321 319 315 314 315 314 313 312 311 311 311 310 310 310 309 308 308 307 306 305 305 304 304 303 303 303 302 302 301 301 301 301 301 300 300 300 300 300 300 300 300 300 300 300 300 300 300 300 300 300 300 300 300 301 301 300 299 299 299 299
323 322 321 319 316 314 314 315 314 313 311 310 310 310 310 309 309 309 308 307 306 306 305 305 304 303 303 303 303 302 302 301 302 302 301 301 300 300 300 300 300 300 300 300 300 300 300 300 300 300 300 300 300 300 299 299 300 300 300 300 299 299 299
321 321 320 317 315 314 314 314 313 312 311 310 310 309 309 309 309 308 307 307 306 305 305 305 304 303 302 302 302 302 302 302 302 302 301 301 300 300 300 300 300 301 301 301 301 300 300 300 300 300 300 300 300 299 299 299 300 300 300 300 299 299 299
321 321 318 315 314 314 314 313 313 312 310 309 309 309 309 308 308 308 307 307 306 305 305 305 303 302 302 302 302 302 302 302 302 302 301 301 301 300 300 300 300 301 301 301 301 300 300 300 300 300 300 299 299 299 299 299 299 299 299 300 300 299 299
320 318 316 315 315 314 313 313 312 311 309 309 309 309 308 307 307 307 307 307 306 305 305 305 303 302 302 302 302 302 302 302 302 302 301 301 301 301 300 300 300 301 301 301 301 300 300 300 300 300 300 299 299 299 299 299 299 299 299 300 299 299 299
317 316 316 315 314 313 312 312 311 310 309 308 308 308 307 307 307 307 307 306 306 305 305 304 304 303 303 302 302 302 302 302 302 302 301 301 301 301 301 300 301 301 301 301 300 300 299 299 299 300 299 299 298 298 298 298 298 298 299 298 298 299 299
316 316 316 314 313 312 312 312 311 309 308 308 307 307 307 307 307 307 306 306 306 305 305 304 304 303 303 303 303 303 302 302 302 302 302 301 301 301 301 301 301 301 299 299 299 299 298 298 298 298 298 298 298 298 298 297 297 298 298 298 298 298 298
317 316 315 314 313 311 311 311 310 308 308 307 307 307 307 307 307 307 306 306 306 305 305 305 304 303 303 303 303 303 303 302 302 302 302 301 301 301 301 301 301 300 298 297 297 297 296 296 297 297 297 296 296 296 296 296 297 297 297 297 297 297 298
316 315 314 313 311 310 310 310 308 307 307 307 306 306 306 307 307 307 306 306 306 305 305 305 304 304 303 303 303 303 303 303 302 302 302 302 302 301 301 301 299 296 295 294 294 294 294 294 295 295 295 295 295 295 295 296 296 296 296 296 297 297 297
315 314 313 311 310 309 308 308 307 306 306 306 306 306 306 306 306 306 306 306 306 305 305 305 304 303 303 303 303 303 303 303 303 303 302 302 302 301 301 301 298 295 295 295 294 294 294 294 294 294 293 292 292 293 295 295 295 295 295 296 296 297 297
313 312 311 310 309 308 307 307 306 305 304 304 304 305 305 305 305 305 305 305 305 305 306 305 303 302 301 302 303 303 303 303 303 303 302 302 303 302 302 302 300 298 297 297 297 296 296 296 295 294 293 292 292 292 293 293 294 294 295 295 296 297 297
312 312 310 309 308 308 307 306 304 304 303 302 301 301 300 301 304 305 305 305 305 305 306 304 301 300 300 300 302 303 303 303 303 303 303 303 302 302 302 301 300 300 298 296 297 298 298 298 297 296 296 295 294 292 292 292 293 293 294 295 296 296 296
311 310 309 308 308 307 306 305 304 303 303 302 299 296 293 297 303 305 305 305 305 306 305 303 300 300 299 299 300 303 303 303 302 303 303 302 302 302 302 301 300 300 299 298 298 298 298 298 298 298 298 298 296 295 294 294 293 292 293 294 295 295 295
310 309 308 308 307 306 304 304 303 303 303 301 296 293 294 299 303 305 304 305 305 305 304 302 300 300 299 299 299 300 302 303 302 302 302 302 302 302 301 301 300 299 299 299 298 296 296 298 298 299 299 299 298 297 297 296 294 293 293 294 294 295 295
309 308 307 307 306 305 304 303 302 302 303 299 295 295 299 302 304 304 304 305 305 305 303 301 300 300 300 300 299 299 302 302 301 302 302 301 302 302 300 299 299 299 299 299 296 294 294 296 298 300 299 299 299 298 298 297 295 294 293 293 293 294 294
309 308 307 306 305 304 303 302 302 302 302 300 298 299 301 303 303 304 304 304 305 304 302 300 300 300 299 299 298 299 301 301 300 301 301 301 301 301 299 299 299 298 299 299 295 293 293 294 297 300 299 299 299 299 299 297 295 295 294 293 292 292 292
309 308 306 305 305 304 304 304 304 303 302 301 301 301 302 303 303 303 304 304 304 303 301 300 299 299 298 298 298 298 299 299 299 300 301 301 301 300 298 298 298 299 300 298 295 294 293 294 297 299 299 299 300 299 299 298 296 295 295 294 294 293 293
308 308 307 306 305 305 305 304 304 303 302 302 301 301 302 302 302 302 303 303 303 302 300 299 299 298 298 297 296 297 297 298 299 301 301 300 300 299 297 295 295 297 299 297 294 294 294 294 297 299 298 299 299 299 298 297 296 296 296 296 296 296 296
309 308 307 306 305 304 304 304 303 302 302 301 301 300 300 301 301 302 302 302 302 301 300 299 298 298 297 294 293 296 298 299 300 301 300 300 299 299 297 295 293 295 296 295 294 294 294 294 296 297 298 298 299 298 297 295 295 295 296 297 298 297 297
309 308 307 305 304 304 304 303 302 302 301 300 300 299 299 300 301 301 302 302 301 300 300 299 297 295 293 290 291 296 300 299 300 301 300 299 299 298 298 297 295 294 294 294 294 294 294 294 295 296 298 298 297 296 294 294 294 295 296 298 298 298 297
309 308 307 305 304 303 303 303 302 301 300 299 299 299 299 300 300 300 301 301 300 299 298 296 293 291 290 289 290 296 300 300 299 300 299 299 299 298 299 299 298 296 294 294 295 294 295 294 294 295 297 297 295 294 293 293 294 296 297 298 298 297 297
309 307 306 305 304 303 302 302 301 300 299 299 299 299 299 299 300 300 300 299 299 298 296 292 290 290 290 290 291 295 300 300 299 299 299 298 299 299 298 299 299 297 294 294 295 295 295 295 295 295 296 295 294 294 293 294 296 297 297 297 297 297 297
307 306 305 304 304 303 302 301 300 299 298 299 299 299 298 298 299 299 299 298 297 296 294 291 290 290 291 291 292 296 299 298 297 298 299 299 299 299 299 299 299 296 294 295 295 295 295 295 295 296 296 295 294 294 295 296 297 297 297 297 297 297 297
305 305 304 303 303 303 302 301 300 299 298 298 299 298 297 297 297 297 297 296 295 296 295 293 291 290 291 292 292 295 296 295 295 297 299 299 299 299 299 299 298 295 295 295 295 295 296 296 296 296 296 295 295 296 297 297 297 297 297 297 297 297 297

ECMWFFLT1_925_thetae_111.txt.gz
Theta_e
335 334 333 332 330 329 328 327 327 326 327 327 327 326 324 324 324 323 322 320 319 319 319 320 320 320 319 318 318 318 319 321 320 317 314 311 310 310 311 311 311 312 314 316 316 315 315 314 311 309 308 306 306 305 305 304 304 305 305 304 304 304 303
335 334 332 331 328 327 327 326 326 327 327 327 325 324 323 323 322 321 319 318 318 317 317 318 318 317 317 315 315 316 316 317 317 316 314 313 312 312 312 312 312 310 310 312 312 313 314 314 312 310 310 310 309 306 305 305 304 305 305 305 304 304 303
334 333 331 329 328 328 327 325 326 327 326 325 324 323 323 322 321 319 318 317 317 315 315 315 314 314 313 313 313 313 313 314 314 314 314 314 314 314 313 314 313 312 311 311 311 311 311 311 310 309 309 311 311 308 306 305 305 306 306 305 304 304 303
333 332 330 329 328 327 327 326 326 327 326 325 323 322 322 321 320 318 317 316 316 315 314 313 312 310 310 310 311 311 311 312 312 312 312 312 312 312 312 312 312 312 312 311 311 310 311 311 311 309 307 308 309 309 307 306 306 306 305 304 303 303 303
332 331 330 330 329 327 327 326 326 326 325 324 323 322 321 320 319 318 316 316 315 315 313 312 310 309 309 309 309 310 311 311 312 312 312 311 311 310 310 310 310 310 310 310 310 310 310 310 310 310 308 307 308 308 307 307 307 305 304 303 302 302 302
332 331 331 330 329 328 327 326 326 326 325 323 322 322 320 319 318 317 316 315 315 313 312 311 309 309 309 308 309 309 310 311 311 312 312 311 310 309 309 309 308 308 308 308 309 309 309 309 309 310 309 308 309 307 306 306 306 304 303 302 302 302 301
332 332 331 330 329 328 327 326 326 326 325 323 322 321 320 318 317 317 316 314 313 312 311 309 308 308 308 308 308 308 308 309 310 310 310 310 310 309 309 308 308 307 308 308 307 307 308 308 308 308 309 309 309 307 305 305 304 304 303 301 302 302 301
333 332 331 330 329 328 327 326 326 326 324 323 322 321 319 317 317 316 314 313 312 311 309 308 308 308 307 307 308 308 307 308 308 309 309 309 309 308 308 307 307 307 307 307 306 306 306 306 306 306 307 308 309 307 306 306 305 304 303 302 302 302 301
333 332 331 329 329 328 327 326 326 325 324 323 321 319 318 317 316 314 313 312 311 310 309 308 307 307 307 307 307 307 306 307 307 307 308 308 308 307 307 307 306 306 306 306 306 306 306 305 305 305 305 305 307 307 306 306 306 305 303 302 303 302 301
332 331 330 330 329 328 326 326 325 324 323 322 320 318 317 316 315 314 313 312 311 310 308 307 307 307 307 307 307 307 307 307 307 307 307 307 307 306 306 306 305 305 305 305 305 305 306 305 304 304 304 304 305 306 306 306 307 306 304 303 303 302 301
332 331 329 329 328 326 325 325 324 322 321 320 319 317 316 316 315 314 312 311 311 309 308 307 307 307 307 307 307 307 306 306 306 306 306 306 306 306 306 305 305 305 305 305 305 305 305 305 304 304 304 304 304 305 306 306 306 305 304 303 303 302 302
331 330 329 328 326 324 323 322 322 321 320 319 318 316 316 315 314 313 312 311 310 309 308 307 307 307 307 307 307 306 306 306 306 306 306 305 305 305 305 305 305 305 305 305 304 304 304 304 304 304 303 304 304 304 305 305 305 305 304 303 303 302 302
330 329 328 326 324 322 322 321 321 320 319 318 317 316 316 315 313 313 312 311 310 309 308 307 307 307 307 307 306 306 306 306 306 306 305 305 305 305 305 305 305 305 305 304 304 304 303 303 304 303 303 304 304 303 304 303 304 304 304 303 303 303 302
328 327 327 325 323 322 320 320 320 319 318 317 316 316 315 314 313 312 311 310 310 309 308 307 307 307 307 307 306 306 305 305 305 305 304 304 304 304 304 304 304 304 304 304 304 304 304 304 304 303 303 303 304 303 303 302 303 303 303 303 303 303 303
326 326 325 323 322 320 320 320 319 318 317 316 315 315 314 314 313 312 311 310 309 308 308 308 307 307 307 307 306 305 305 305 305 305 305 304 304 304 304 304 303 304 304 304 304 303 304 304 304 303 303 303 303 303 302 302 303 303 304 303 303 303 302
325 325 323 321 320 319 319 319 318 318 316 315 314 314 314 313 312 311 310 309 309 308 308 308 307 307 307 306 306 306 306 305 305 305 304 304 303 303 304 304 304 304 305 305 304 303 303 304 304 303 303 303 303 302 302 302 303 303 303 303 302 302 302
324 323 322 320 320 319 319 319 318 317 315 314 314 314 313 313 311 311 310 309 309 308 308 308 307 307 306 306 306 306 306 305 305 305 305 304 303 304 304 304 304 305 305 305 304 303 303 303 303 304 303 302 302 302 302 302 303 302 302 302 302 302 301
323 322 321 319 319 318 318 318 318 316 314 313 314 313 312 312 311 311 310 309 308 308 308 307 306 306 306 306 306 306 305 305 305 305 304 304 304 304 304 304 304 304 305 305 304 303 302 302 303 303 303 302 302 301 301 302 302 301 301 301 301 301 301
322 321 320 319 318 318 318 318 317 315 314 313 313 313 312 311 311 310 310 309 308 308 308 307 306 305 305 306 306 305 306 305 305 304 304 304 304 304 304 304 304 304 304 304 303 301 301 301 302 302 302 301 300 300 300 301 300 300 300 300 300 300 300
322 320 319 319 318 318 318 319 317 314 313 313 313 312 311 311 310 310 309 308 308 308 307 306 306 305 305 306 306 306 306 306 305 304 304 304 304 304 304 304 304 303 302 302 302 300 299 299 300 301 300 299 299 299 299 299 299 299 299 299 300 300 300
321 320 319 318 317 318 319 318 316 313 312 312 311 310 310 310 309 309 309 308 308 308 307 307 306 306 306 306 306 306 306 306 305 305 305 304 304 304 304 304 303 301 299 298 297 297 296 296 298 299 298 298 298 298 298 299 298 299 299 299 299 299 299
320 319 318 317 318 318 318 317 315 312 311 311 310 309 310 309 309 309 309 309 309 308 307 307 306 306 306 306 306 306 306 306 305 305 305 304 304 304 304 304 301 297 295 294 294 294 295 295 296 297 296 296 296 297 297 298 298 298 298 298 299 299 299
320 319 318 317 317 318 318 316 313 311 311 310 309 309 308 308 309 309 308 308 308 307 307 307 306 306 306 306 306 306 306 306 305 305 305 305 304 304 305 303 299 296 296 297 297 297 298 297 297 296 296 295 296 296 297 297 297 297 297 298 298 299 299
320 318 317 317 317 317 318 315 312 311 310 309 307 307 307 307 307 307 307 308 307 306 307 307 306 305 305 305 306 306 306 306 306 306 305 305 305 305 305 304 301 300 300 299 299 300 299 299 299 298 297 297 297 296 296 297 297 296 296 297 298 298 298
319 318 317 316 315 315 315 313 311 310 309 308 307 306 306 306 306 306 307 308 307 307 307 307 306 304 304 305 306 306 306 306 306 306 305 306 306 305 305 304 303 303 301 298 299 301 300 299 300 299 299 300 299 297 297 297 297 296 296 297 297 298 298
319 319 317 315 314 313 312 311 310 309 308 308 308 307 307 306 306 306 307 306 307 307 307 307 306 304 303 304 305 305 306 306 305 306 306 306 306 305 305 304 303 303 302 300 300 300 299 299 300 300 301 302 302 300 299 298 298 297 296 297 298 298 297
319 317 316 314 314 313 311 310 309 308 307 307 307 307 307 306 306 306 306 306 307 308 308 307 305 302 301 303 304 304 305 305 305 305 306 306 305 304 304 304 304 303 302 303 301 297 296 298 299 301 303 303 303 302 301 300 300 298 297 298 298 298 298
317 316 315 314 313 312 311 310 309 308 307 306 305 304 304 304 304 305 306 307 307 307 308 307 304 299 299 301 303 304 304 305 305 306 306 305 304 304 304 303 303 302 302 303 300 295 294 296 298 301 303 302 302 303 302 302 301 299 298 298 298 298 298
315 314 314 313 312 311 310 310 308 307 306 305 303 302 301 302 303 305 306 307 307 308 308 306 302 299 298 299 301 302 303 305 305 305 304 304 304 305 304 302 302 302 302 303 300 295 293 295 297 301 303 302 302 303 302 302 300 298 297 297 297 298 298
314 313 313 313 312 311 310 309 307 306 305 304 302 302 301 302 303 305 306 307 308 308 307 304 301 299 299 299 299 300 302 304 304 303 303 304 304 304 303 301 302 302 302 303 300 295 294 295 298 301 302 301 302 303 302 301 299 297 297 297 297 298 299
313 313 313 312 312 311 309 308 307 306 305 304 303 302 302 303 305 306 306 307 308 308 306 303 300 300 300 299 299 300 302 302 301 302 304 304 304 304 302 300 301 302 303 302 298 295 294 295 297 300 301 301 302 302 300 299 297 297 297 298 299 300 300
314 313 312 312 311 310 309 308 307 307 306 304 303 303 304 305 306 306 306 307 307 307 304 302 300 300 300 300 300 300 301 300 301 302 304 303 303 303 301 297 296 298 300 299 295 295 295 295 296 298 299 301 301 300 298 297 297 297 298 299 300 300 300
314 313 312 311 310 309 309 308 308 307 306 304 304 304 304 305 305 305 306 306 306 305 303 301 300 300 300 300 299 298 299 301 302 303 303 303 303 303 301 297 295 295 296 295 294 295 295 295 295 296 298 300 300 298 296 296 296 298 299 300 301 300 300
313 312 311 310 309 309 308 308 307 306 305 304 304 304 303 303 304 304 305 305 305 305 303 300 300 300 300 300 298 295 297 302 303 303 303 303 302 302 302 300 298 296 295 294 295 295 295 295 296 295 296 298 297 295 295 296 297 298 299 300 300 300 299
311 311 310 309 308 308 307 307 306 305 305 304 304 302 302 303 303 304 305 304 304 304 303 301 300 299 299 299 295 292 296 301 302 302 303 302 302 302 302 302 302 300 297 295 294 295 295 295 296 296 296 296 295 295 296 297 298 299 300 300 300 300 300
311 310 309 309 308 307 306 306 305 305 304 303 303 302 302 302 303 304 304 304 303 303 302 300 299 298 298 296 292 290 295 300 301 302 302 302 302 302 302 302 302 301 298 296 294 295 296 296 296 296 296 295 296 297 298 298 299 300 300 301 300 300 300
310 309 308 307 307 306 306 306 305 304 303 303 303 302 302 302 303 303 303 302 302 302 301 298 296 295 293 292 290 290 294 299 300 300 302 302 302 302 302 301 301 300 298 295 295 295 296 296 297 297 296 296 297 298 299 299 300 300 301 301 300 300 300

ECMWFFLT1_925_thetae_114.txt.gz
Theta_e
336 336 336 334 333 332 331 330 329 329 329 329 328 328 326 325 325 324 323 322 321 321 322 322 322 321 320 320 320 321 322 321 318 314 311 311 312 312 312 312 311 313 315 316 316 315 317 316 312 309 307 305 305 304 304 304 304 304 304 304 304 304 304
336 336 336 334 332 332 331 329 328 328 329 328 327 326 325 324 324 322 321 320 319 319 320 320 319 318 317 317 317 319 319 319 317 315 314 314 314 314 313 313 311 311 311 311 312 312 315 317 315 312 310 308 308 305 304 304 303 303 305 305 305 304 305
336 336 334 332 331 331 330 329 329 329 328 327 325 325 324 323 322 321 320 318 317 317 317 316 316 315 314 314 314 315 316 316 315 315 315 314 314 314 314 314 313 312 313 312 312 311 313 315 315 313 311 311 311 309 306 305 304 304 305 306 305 305 304
336 335 333 331 330 330 329 329 329 328 327 326 325 324 323 323 321 319 318 317 316 315 314 313 312 312 311 311 312 312 313 313 313 313 313 312 312 312 312 312 312 312 312 313 312 311 312 313 315 315 311 310 312 310 307 307 306 305 306 306 304 303 303
335 333 332 331 330 330 329 328 328 328 326 325 324 323 323 322 321 318 317 317 316 314 313 311 311 310 310 311 311 312 313 313 313 312 311 311 310 310 310 310 310 310 310 310 310 310 311 310 312 314 310 308 311 311 308 308 307 306 306 305 303 302 302
334 333 332 331 330 330 329 328 328 327 326 325 324 323 322 322 320 318 317 317 315 313 312 311 310 310 310 310 311 311 312 313 312 311 311 310 310 309 309 309 309 309 308 309 308 309 309 308 309 310 310 309 310 310 308 308 307 305 304 303 302 302 302
334 333 332 331 331 330 329 328 327 327 326 324 324 322 321 321 319 318 317 315 314 312 310 310 310 309 309 309 309 309 310 311 310 310 310 310 309 309 309 308 308 308 308 307 307 307 307 307 307 308 308 309 310 308 306 307 307 305 303 302 302 302 302
334 333 332 331 330 329 329 328 327 326 326 324 323 322 321 320 319 317 316 314 312 311 309 309 309 309 309 309 308 308 308 309 308 308 309 309 308 308 308 308 307 307 307 307 306 307 306 306 306 306 306 308 311 311 307 307 306 304 303 303 302 303 302
334 333 332 331 330 329 329 328 327 326 325 324 323 322 320 319 318 316 314 313 311 310 309 309 309 309 308 307 306 306 307 307 307 307 308 308 307 307 307 307 306 306 306 306 306 306 306 305 305 305 305 306 309 311 310 310 309 306 304 303 303 303 302
334 333 332 331 329 329 328 327 327 326 324 323 322 321 319 318 317 315 313 312 310 309 309 309 309 308 307 306 306 307 307 308 308 308 307 307 307 307 306 306 306 306 305 305 305 305 305 305 305 305 305 304 306 308 310 311 310 307 305 304 303 303 303
334 333 331 330 329 329 328 327 327 325 324 323 321 320 318 317 316 314 313 311 310 309 309 308 309 308 307 307 307 307 307 307 307 307 307 307 307 306 306 306 305 305 305 305 304 304 304 305 305 304 305 304 304 305 307 308 309 307 304 304 304 303 303
334 333 331 330 329 328 328 327 326 324 323 323 321 319 318 317 315 314 312 311 310 309 308 308 308 308 307 307 307 307 307 307 307 307 306 306 306 306 306 306 305 305 305 305 304 305 304 304 305 304 304 304 304 304 304 305 307 305 304 304 304 303 303
333 332 331 330 329 328 328 326 325 323 323 323 321 318 317 316 315 314 312 311 310 309 308 308 308 308 307 307 307 307 307 307 306 306 306 306 306 306 306 306 306 306 305 305 304 304 304 304 304 304 304 304 304 304 303 303 305 305 303 303 304 303 303
333 332 331 330 328 328 327 325 323 323 322 321 319 317 317 316 315 313 312 311 310 309 308 308 308 308 308 307 307 307 307 306 306 306 306 306 305 305 305 305 305 305 305 305 304 304 304 305 305 304 304 304 304 303 303 302 303 304 303 303 304 303 303
332 331 331 329 328 327 325 323 322 321 321 320 319 317 316 315 314 313 312 311 310 309 309 308 308 308 308 307 307 307 307 306 306 305 305 305 305 305 304 304 305 305 305 305 304 304 304 305 305 304 303 303 303 303 303 303 303 304 304 303 303 302 302
331 330 330 328 327 325 323 322 321 320 320 319 318 317 316 315 313 312 311 311 309 309 309 308 308 308 308 307 306 307 307 306 306 305 305 305 305 305 305 305 305 305 305 305 305 304 303 304 305 305 304 303 303 303 303 302 302 303 303 303 302 302 302
331 329 328 326 325 323 322 322 321 319 318 318 317 316 315 314 313 312 311 310 309 309 308 308 308 308 307 307 307 307 306 306 306 305 304 304 304 305 305 305 305 305 306 305 304 303 303 303 304 304 304 303 302 302 301 301 301 302 302 302 301 301 301
330 328 326 325 323 323 322 321 320 318 317 316 316 316 315 314 312 311 310 310 309 309 309 308 308 308 307 307 307 307 306 306 306 305 304 304 305 305 305 305 305 305 306 305 304 303 302 302 303 303 303 302 301 300 300 300 300 300 300 301 301 300 300
328 326 324 324 323 322 322 320 319 318 316 315 316 315 314 313 312 311 310 309 309 309 308 308 308 307 307 307 307 306 306 306 306 305 305 304 305 305 305 305 305 305 305 304 303 301 300 301 302 302 301 300 299 299 299 299 299 299 299 300 300 300 299
326 325 323 323 322 321 321 320 318 317 315 315 315 314 313 313 312 311 310 309 309 309 308 307 307 307 307 307 306 306 306 306 306 305 304 305 305 304 305 305 304 303 303 303 302 300 298 298 300 300 299 298 298 298 298 298 299 299 299 299 299 299 299
325 324 323 322 321 321 320 319 318 316 315 315 315 314 313 312 311 311 310 309 309 308 307 307 306 306 307 307 306 307 306 306 305 305 305 305 305 304 305 304 303 302 301 301 300 297 294 294 296 297 296 295 295 296 297 297 298 298 298 298 298 298 298
324 323 322 321 321 321 319 319 317 315 315 315 314 313 312 312 311 310 309 309 309 308 307 306 305 306 306 306 306 307 306 306 305 305 305 305 304 305 305 304 302 300 297 295 295 294 294 295 295 295 295 295 296 297 297 297 298 298 297 297 297 297 298
323 322 321 321 321 320 319 318 316 315 314 314 313 312 312 311 310 310 309 309 308 308 307 306 306 306 306 306 306 306 306 306 306 306 305 305 305 305 305 304 301 298 294 293 294 297 299 299 298 298 298 299 299 299 298 298 298 299 298 298 297 297 298
322 321 321 321 320 320 319 317 315 314 314 313 312 312 311 310 310 309 309 308 308 307 306 306 306 305 305 306 306 306 306 306 306 306 306 305 305 305 305 304 302 300 299 296 295 299 301 300 299 299 299 300 300 300 299 298 298 299 299 298 298 298 298
321 321 321 321 320 319 319 317 314 313 313 312 311 311 310 309 309 310 309 308 307 307 306 306 306 305 306 306 306 307 307 306 306 306 306 306 305 305 305 305 304 303 302 298 297 300 301 300 300 300 299 301 302 301 301 300 299 299 299 298 298 298 299
321 321 320 320 319 319 319 316 314 313 312 311 310 310 309 309 309 309 307 307 307 307 306 306 306 305 306 306 307 307 307 306 306 307 306 306 306 306 305 305 304 303 303 301 300 301 300 298 298 299 300 302 303 303 303 303 302 300 299 298 298 298 299
321 320 320 320 319 319 317 315 313 312 311 310 309 309 309 308 308 308 307 307 308 308 307 307 306 305 305 306 306 307 307 307 306 307 307 306 307 307 306 305 304 303 303 303 303 302 299 295 295 298 301 303 304 303 303 303 303 301 300 299 299 298 298
320 319 319 319 319 318 316 314 313 312 310 309 309 308 308 307 307 306 307 309 308 308 308 308 307 306 305 305 306 306 307 307 306 306 307 306 306 306 305 305 305 304 303 303 303 303 299 294 294 299 303 303 303 302 303 303 303 301 299 299 298 298 298
319 319 318 318 318 317 315 313 312 311 310 309 309 308 307 306 306 306 308 308 307 308 309 308 307 306 305 304 305 305 306 306 305 306 307 306 305 305 305 305 304 303 303 303 303 303 299 293 294 300 302 302 302 302 303 302 301 299 297 298 298 298 299
319 318 318 317 317 315 314 313 311 310 310 309 308 308 307 307 307 307 307 307 307 308 309 308 307 306 304 303 304 305 305 306 306 306 306 305 304 305 305 304 303 302 303 303 303 303 299 294 294 299 301 301 301 302 302 301 299 297 297 298 299 300 300
321 320 318 317 316 315 314 312 311 309 308 307 306 306 305 305 306 305 305 306 308 308 308 308 308 305 301 300 303 304 303 305 306 305 304 304 304 304 305 304 302 302 303 303 303 302 298 294 294 297 298 299 301 302 301 299 297 297 299 299 299 300 301
321 320 318 316 315 314 313 311 310 308 307 305 304 303 303 303 303 303 305 306 308 309 308 308 307 304 299 298 301 303 303 303 304 303 303 304 304 304 305 304 302 302 303 303 303 301 296 294 294 295 295 297 300 301 300 297 297 298 299 299 299 300 301
319 318 316 315 314 313 312 310 309 307 306 305 303 302 302 302 303 304 306 307 308 308 308 307 305 302 299 297 299 302 302 302 302 302 303 304 304 304 304 304 302 300 300 301 301 298 295 294 295 295 295 295 298 298 297 297 298 298 298 299 300 301 301
317 316 315 315 314 312 311 309 308 307 305 304 303 303 303 304 305 306 306 307 308 307 307 306 304 301 299 297 297 300 302 302 302 303 304 304 304 304 304 303 301 298 296 296 296 295 294 295 295 295 295 295 295 295 296 297 298 298 299 299 301 301 300
316 316 315 314 313 311 310 309 308 307 306 304 304 304 305 306 306 306 306 306 307 306 306 305 303 300 298 297 296 298 300 301 302 303 304 304 304 303 303 303 302 299 297 297 296 295 294 295 295 295 295 294 295 295 296 297 298 298 299 300 301 301 300
316 315 314 313 312 310 309 308 308 307 306 305 305 305 305 305 305 304 305 306 306 306 305 304 302 299 298 297 297 297 297 299 301 302 302 304 304 303 302 302 302 301 300 300 299 297 295 295 295 295 296 296 296 297 297 298 298 299 299 300 301 300 300
314 314 313 312 311 310 309 308 307 306 306 305 305 304 303 303 303 303 305 306 306 305 304 302 300 299 298 298 299 296 295 297 300 301 301 302 302 302 303 303 302 302 301 301 300 297 295 294 295 295 297 298 298 298 298 298 299 300 300 301 301 300 300

ECMWFFLT1_925_thetae_117.txt.gz
Theta_e
336 336 336 335 335 334 333 332 331 330 330 329 329 328 327 327 325 325 324 323 322 324 325 325 325 324 323 322 322 322 320 318 315 312 313 315 316 314 312 312 313 316 315 313 315 315 316 316 311 308 305 304 305 303 303 305 303 302 301 301 302 303 303
336 336 335 334 334 333 332 331 330 329 329 329 328 327 326 325 324 323 322 321 321 323 324 323 323 322 322 321 321 321 318 315 313 311 312 313 312 312 311 311 311 313 311 311 313 312 315 319 316 311 307 306 306 304 302 304 303 302 302 302 303 303 303
336 336 335 334 333 332 331 330 329 329 328 327 326 325 324 324 323 321 320 320 320 321 322 322 321 320 320 320 320 320 317 315 313 313 313 313 313 313 312 311 312 312 311 310 311 311 311 314 316 312 308 307 309 308 307 307 305 304 303 303 303 304 304
336 335 334 333 332 331 330 329 329 328 327 326 325 324 324 323 321 320 319 318 318 319 319 319 318 317 316 316 317 317 316 315 314 313 313 313 312 312 312 312 311 310 310 310 309 310 309 310 314 313 309 308 309 309 310 310 306 305 305 304 303 304 304
336 335 334 333 332 330 330 329 328 328 326 325 325 324 322 321 319 319 318 317 315 315 314 313 313 312 312 313 314 314 314 313 313 312 312 311 311 311 310 310 310 309 309 309 308 308 308 308 311 310 307 308 310 309 310 310 307 305 305 305 304 304 303
336 335 334 333 331 331 330 329 328 327 326 325 324 323 322 321 318 317 317 316 314 312 311 310 311 311 311 312 312 312 312 311 311 310 309 309 309 309 309 308 308 308 307 307 307 307 307 306 307 306 306 307 309 310 310 309 307 305 304 304 303 303 302
335 334 334 332 331 331 330 329 328 326 325 325 324 322 321 320 319 317 316 315 313 311 310 310 311 311 311 311 312 311 311 310 309 309 308 308 308 307 307 307 307 307 306 306 306 305 305 305 305 305 307 308 308 307 307 308 307 304 303 303 302 302 302
335 334 333 332 331 330 329 328 327 326 325 324 324 323 321 320 318 317 316 315 312 310 310 310 310 310 310 310 310 310 310 309 308 308 308 307 307 306 306 305 305 305 305 305 305 305 304 305 305 304 306 312 314 309 306 307 306 304 304 303 302 302 302
335 334 333 331 330 330 329 328 327 326 325 324 323 323 321 319 318 317 315 314 311 310 309 309 309 309 308 308 308 308 308 307 307 307 307 306 305 305 304 304 305 305 304 304 304 304 304 304 305 304 303 307 313 313 311 311 308 304 305 304 302 302 302
334 333 332 331 330 329 328 327 327 326 325 324 323 322 320 319 317 316 314 312 310 309 309 309 308 308 306 306 306 306 306 306 305 305 305 305 305 304 303 303 303 303 303 303 304 304 304 304 304 304 303 302 306 310 311 314 311 305 304 303 302 303 302
334 333 332 331 330 329 328 327 326 326 324 324 323 321 319 318 316 316 313 311 309 309 309 308 307 306 305 306 306 306 306 304 304 304 304 305 305 304 303 301 301 302 303 303 304 304 304 304 303 303 305 304 303 304 305 309 310 305 303 302 302 302 302
333 332 332 331 330 329 328 327 326 325 324 323 322 320 319 317 316 314 312 310 309 309 308 307 306 306 305 306 306 306 306 304 303 304 304 304 304 303 302 303 303 303 303 303 303 304 303 303 303 303 304 304 304 303 302 303 305 304 302 302 301 301 301
333 332 331 330 330 329 328 327 326 325 323 322 321 319 318 317 315 313 311 309 309 309 308 307 307 306 305 305 305 305 305 304 303 303 304 304 305 305 305 305 305 305 304 304 304 304 304 304 304 303 304 304 303 303 302 302 303 302 302 302 301 300 300
333 332 331 330 329 328 327 327 326 324 323 321 320 319 318 316 314 313 310 309 309 308 308 307 307 306 305 306 306 305 304 303 303 304 305 305 306 306 306 305 305 304 304 304 304 304 304 304 304 303 303 303 303 303 303 302 302 302 301 301 301 300 299
333 332 330 329 328 328 327 326 325 324 322 321 320 318 317 316 314 313 310 309 308 308 308 307 306 306 305 306 306 305 304 303 304 305 305 305 305 304 305 304 304 304 304 304 303 303 304 305 304 303 303 302 302 302 302 301 301 301 301 300 300 299 299
333 331 330 329 328 327 327 325 324 324 322 320 318 318 317 316 314 312 311 309 308 308 308 307 306 307 306 306 306 306 305 303 304 305 305 304 304 304 304 303 304 305 305 304 303 302 303 304 304 304 303 302 301 301 300 300 300 300 300 300 299 299 298
332 331 330 329 328 327 326 325 324 323 322 320 318 317 316 315 314 312 310 309 308 308 307 307 307 308 306 306 307 306 305 304 304 305 304 304 304 304 304 304 305 305 305 304 303 302 302 303 303 303 302 301 300 300 299 298 298 299 299 299 298 297 297
332 330 329 328 328 327 326 325 324 323 321 319 318 317 316 315 313 312 311 309 308 308 307 307 308 307 306 306 307 306 305 305 305 304 304 304 304 304 304 305 305 305 304 303 303 302 301 302 302 301 301 300 299 298 297 297 298 298 297 297 297 296 295
331 330 329 327 327 326 325 324 323 322 320 319 318 316 316 314 313 312 311 309 309 308 307 308 308 307 306 306 307 306 306 305 304 304 304 304 304 304 304 305 305 305 305 303 303 302 300 300 301 301 300 299 296 295 295 296 296 297 297 296 296 296 296
331 329 328 327 326 325 324 323 322 321 320 318 317 316 315 314 312 311 310 309 309 308 307 308 308 306 306 307 306 306 306 305 305 304 304 304 305 304 305 305 304 304 304 303 302 301 298 298 300 300 297 295 294 295 296 297 297 298 298 298 298 298 297
330 328 327 326 325 324 322 321 320 320 319 317 316 316 315 313 312 311 310 309 309 308 307 308 307 306 307 307 306 306 306 306 305 304 304 305 304 304 305 304 304 303 303 302 301 297 294 295 296 296 295 295 297 299 299 299 299 299 299 299 299 298 298
328 327 326 325 324 322 321 320 319 319 318 316 316 315 314 313 312 311 310 309 309 308 308 307 307 307 307 306 306 306 306 306 305 304 304 304 304 304 304 304 304 302 300 298 297 294 291 293 294 294 296 298 300 300 300 300 300 300 299 299 299 299 298
327 326 325 324 323 321 320 319 319 318 316 316 315 315 314 312 311 310 310 309 309 308 307 307 307 306 305 305 306 306 306 305 305 304 305 304 304 304 304 304 303 299 295 293 293 294 295 296 297 297 298 300 300 300 300 300 301 301 299 298 299 299 298
326 325 324 323 322 321 320 318 318 317 316 315 315 314 313 312 311 310 310 309 309 308 307 307 305 304 305 306 306 306 305 305 305 305 305 304 304 304 304 304 303 300 298 295 293 295 299 299 299 299 299 300 301 301 301 301 301 301 300 299 299 299 298
325 324 323 322 322 321 319 318 317 316 315 315 315 314 313 312 311 310 309 309 308 307 307 305 303 304 306 306 306 306 306 305 305 305 305 304 304 304 304 304 304 303 303 299 295 297 300 300 299 298 297 300 302 302 302 302 302 302 302 301 300 299 298
324 323 322 322 321 320 319 317 316 315 315 315 314 313 312 312 311 310 309 309 308 307 306 304 303 305 306 305 306 306 306 306 306 305 305 305 304 304 304 305 304 304 303 301 299 300 300 299 298 296 296 300 303 302 302 302 302 303 302 301 300 299 298
324 323 322 321 320 320 318 316 315 315 315 314 313 312 312 311 311 310 309 308 308 307 306 304 304 306 305 305 306 306 306 306 306 305 305 306 305 305 305 305 305 304 303 302 302 302 301 301 298 295 297 302 302 301 302 302 302 301 300 299 298 298 298
323 322 321 321 320 319 318 316 315 314 314 314 313 312 311 311 310 309 309 308 308 307 306 305 306 305 305 306 306 306 306 306 306 306 306 306 306 306 305 305 305 304 303 303 303 303 302 303 299 295 299 303 301 301 302 302 301 299 297 297 298 298 299
322 321 321 320 320 319 317 315 314 314 314 313 312 311 311 310 310 309 308 308 307 306 306 306 306 305 305 306 306 306 307 306 306 306 306 306 306 306 305 305 305 305 304 303 303 303 303 303 299 295 298 301 300 301 302 301 300 298 297 298 299 299 300
322 321 321 320 320 319 316 314 313 313 313 312 311 310 310 309 309 309 308 307 306 306 306 306 306 305 305 306 306 306 307 306 305 306 306 306 306 306 306 305 305 304 303 303 303 302 302 303 299 295 295 297 299 301 302 300 299 298 298 299 300 300 300
322 321 320 320 320 318 315 314 313 313 312 311 310 310 310 309 309 308 307 307 307 307 307 307 306 306 305 305 305 306 306 306 305 306 306 306 306 306 305 305 305 305 303 302 303 302 302 303 299 295 293 295 297 299 299 298 298 299 300 300 300 300 300
322 321 320 320 319 317 314 313 313 312 311 310 310 309 309 308 308 308 308 308 308 307 307 307 307 307 306 306 305 305 306 306 305 306 306 306 306 305 305 305 305 304 302 302 303 302 303 302 298 294 293 294 295 296 296 296 298 299 299 300 300 301 300
321 321 320 319 318 316 314 312 312 311 310 310 309 309 308 307 307 306 307 308 308 307 307 308 308 307 307 306 305 305 305 306 305 305 305 304 304 304 304 304 305 304 302 302 302 302 302 300 296 293 293 294 294 294 295 297 298 299 299 300 300 300 300
320 320 319 319 317 314 313 312 312 311 310 309 309 308 307 306 306 306 306 306 307 307 307 308 308 307 307 306 305 304 305 305 304 304 303 303 303 303 304 304 305 304 303 302 302 302 300 297 294 293 294 294 294 294 295 297 298 299 299 300 300 300 300
320 319 319 318 316 314 313 312 311 310 309 308 308 307 306 306 306 306 305 305 305 307 308 308 308 307 307 305 303 302 304 304 303 302 302 302 303 304 304 304 304 304 304 302 300 298 297 294 293 294 294 295 295 295 296 297 298 299 299 300 300 300 300
319 319 318 317 315 314 312 311 309 309 308 307 306 305 304 304 304 304 304 305 306 307 308 308 307 307 307 304 300 300 303 303 302 302 302 303 303 304 303 303 304 303 303 302 298 296 296 296 295 294 294 295 297 297 297 298 298 299 299 300 300 300 300
319 318 317 316 315 313 311 309 308 308 307 305 304 303 303 303 303 304 305 307 307 307 307 307 306 307 307 304 300 298 299 302 302 302 302 303 303 303 303 303 303 303 303 302 299 298 299 299 297 294 294 296 298 298 298 299 299 299 300 300 300 300 299

ECMWFFLT1_925_thetae_123.txt.gz
Theta_e
338 338 338 338 338 338 338 338 338 338 338 337 336 335 335 335 334 333 333 333 333 332 331 329 328 328 328 328 328 328 328 327 328 328 326 324 325 324 323 322 321 321 320 318 315 313 315 316 310 306 306 305 305 305 303 303 303 302 301 301 301 302 303
338 338 338 339 339 339 338 338 338 338 337 336 335 334 334 333 333 332 332 332 332 331 330 328 327 327 327 328 327 327 328 326 326 328 327 325 325 326 324 321 320 319 317 317 314 311 314 318 316 311 307 304 304 304 303 304 303 301 301 302 302 303 304
338 338 338 338 338 338 338 338 338 337 336 334 333 333 332 332 331 331 330 329 329 329 329 328 326 326 326 327 327 327 327 326 325 325 326 326 326 326 326 322 320 317 315 313 312 310 310 312 314 311 307 305 304 303 304 304 303 302 302 303 303 304 303
338 338 338 338 338 338 338 338 337 336 335 333 332 332 331 330 329 328 328 327 327 327 326 326 325 325 326 326 326 326 326 326 325 324 324 325 325 325 324 322 320 319 317 315 313 313 311 310 312 311 307 305 304 304 306 304 303 303 303 303 303 303 302
338 338 338 337 337 337 337 337 335 334 333 332 331 331 329 329 328 327 326 325 325 324 323 324 324 324 324 324 324 324 324 324 324 323 321 321 322 323 321 319 317 317 318 317 315 315 313 311 313 311 306 306 306 306 307 306 304 304 303 303 302 301 301
337 337 337 338 338 337 337 336 334 332 331 331 330 330 328 328 327 326 325 324 323 322 322 323 324 324 324 323 323 322 322 321 320 319 317 316 316 317 318 316 314 313 314 313 313 313 313 311 310 308 306 307 307 307 308 306 303 303 302 301 301 300 300
337 337 337 337 338 337 336 335 334 332 331 330 330 329 328 327 326 325 324 324 322 321 321 321 322 322 322 322 321 321 320 319 317 315 314 313 312 311 312 312 311 311 311 310 310 310 311 310 309 309 307 306 306 306 307 305 302 302 302 302 301 299 298
337 337 337 337 337 337 336 335 334 332 331 331 330 328 327 326 325 324 323 322 321 320 320 320 320 320 319 319 318 318 318 317 315 313 312 312 311 310 310 310 310 309 308 308 308 308 309 309 308 308 308 307 306 304 303 303 302 302 301 302 302 299 297
337 337 337 337 337 336 336 336 334 333 332 331 329 327 326 325 324 323 322 321 320 319 318 318 317 317 315 315 315 316 316 315 313 312 312 311 311 310 310 309 308 308 307 306 306 306 307 307 307 307 307 307 307 306 305 304 303 302 300 300 300 299 297
336 337 336 336 336 335 335 335 334 332 332 330 329 327 325 324 323 323 322 320 319 318 317 316 315 314 312 312 313 313 314 313 312 312 311 311 310 310 309 308 307 307 305 305 304 304 304 304 305 306 306 306 306 308 310 308 304 302 301 299 298 298 297
336 336 336 336 335 333 333 333 333 332 331 330 328 326 325 324 323 322 321 320 318 317 315 314 313 312 310 310 311 312 312 312 311 310 310 309 309 308 307 307 306 305 304 303 303 302 302 302 302 303 305 305 305 306 308 307 304 302 301 299 297 296 296
336 336 336 335 334 333 332 331 331 331 330 329 327 326 324 323 322 321 320 319 318 316 314 313 312 311 310 310 310 311 311 310 309 309 308 308 307 306 306 305 304 303 303 302 302 302 302 301 301 301 301 302 302 303 303 304 304 302 299 298 296 294 294
336 336 336 335 334 333 332 331 331 330 330 328 326 325 324 323 322 321 320 319 317 316 314 312 311 311 310 309 310 310 309 309 308 307 306 306 305 305 304 304 303 303 302 302 302 302 302 302 301 300 300 299 299 300 299 300 302 301 298 296 295 294 294
336 335 335 334 334 333 332 331 330 330 329 328 326 324 323 323 323 322 320 319 317 316 313 312 310 310 309 309 309 309 308 308 307 306 305 305 304 303 303 303 303 303 303 303 303 303 302 302 302 301 301 300 299 299 298 297 299 299 297 295 295 294 294
335 335 334 334 334 333 332 331 330 330 329 327 326 324 324 323 322 322 320 318 317 315 313 312 310 309 308 308 309 308 307 307 306 305 304 303 302 302 302 303 303 303 303 303 303 303 302 302 302 302 301 300 300 298 297 296 297 297 296 296 295 295 295
335 335 334 334 333 332 331 331 330 330 329 328 326 325 324 323 322 321 319 318 316 315 313 311 309 309 308 307 307 307 307 306 305 304 303 302 302 302 302 303 303 303 303 303 302 302 302 302 302 301 300 300 299 297 296 295 295 296 297 297 296 296 297
335 335 334 333 333 332 331 331 330 329 329 328 326 325 323 323 322 320 318 317 316 314 312 310 309 308 307 306 306 306 306 305 304 304 302 302 302 303 303 303 303 303 303 303 303 302 302 302 301 301 300 299 297 295 295 296 296 297 298 298 297 297 297
335 335 334 333 332 331 331 330 329 328 328 327 326 324 323 322 321 320 318 317 315 313 311 309 308 307 307 306 306 305 305 305 304 303 302 302 303 304 303 303 303 303 303 303 303 303 302 302 301 301 299 296 295 295 297 299 299 299 299 298 298 297 297
334 334 334 333 332 331 330 329 328 328 328 327 326 324 323 322 321 319 318 316 315 313 310 308 308 307 306 306 305 305 304 304 303 303 303 304 304 304 303 303 303 303 303 302 303 303 303 302 302 300 296 295 296 298 299 300 300 300 300 299 298 298 298
334 334 333 333 332 331 330 329 328 328 328 327 325 324 322 322 320 319 318 316 314 312 310 308 307 306 306 306 306 305 305 304 304 304 305 305 305 304 303 303 303 303 302 302 302 302 302 302 301 297 295 296 299 300 300 301 301 301 300 300 298 298 298
334 333 333 332 332 330 329 328 328 328 328 326 325 324 322 321 320 318 317 315 313 311 309 308 307 307 306 305 305 305 304 304 304 305 305 304 304 304 304 304 303 303 303 302 301 301 300 300 298 295 296 299 300 300 301 301 301 301 300 299 299 298 298
334 333 332 331 331 330 328 328 328 328 327 325 324 324 322 321 319 317 315 314 312 311 309 308 307 307 306 305 305 305 304 304 305 304 304 303 303 303 304 304 304 304 304 303 301 299 298 299 297 295 296 300 300 300 301 301 301 301 300 299 298 298 298
333 332 332 331 331 330 328 327 326 326 326 325 324 323 321 320 319 317 315 313 312 310 309 308 307 306 306 305 306 305 304 304 305 304 304 304 303 304 304 304 304 304 304 303 299 295 295 297 296 295 297 300 301 301 301 301 302 301 299 298 298 298 298
333 332 331 330 330 329 328 326 325 324 324 323 323 322 321 319 318 317 315 313 312 310 309 308 307 306 306 306 306 305 304 304 304 304 304 304 304 304 304 304 304 303 302 301 297 293 293 295 295 296 298 300 301 302 301 301 302 300 298 298 298 298 298
332 331 330 329 329 328 327 324 323 323 323 322 322 320 319 318 317 316 315 314 313 311 309 308 307 306 306 306 306 306 305 304 304 304 303 304 304 304 304 304 304 301 298 296 294 293 294 295 296 296 297 300 302 302 301 302 301 298 297 298 298 298 298
332 331 329 329 328 327 326 323 322 323 323 323 321 318 317 318 317 316 315 314 313 311 309 308 307 307 307 306 306 306 305 305 304 303 303 303 304 304 304 304 303 299 295 293 294 294 296 297 296 295 295 299 302 301 301 302 300 298 297 299 299 298 298
331 330 329 328 327 326 325 324 323 323 323 322 319 316 317 318 316 315 315 314 313 311 310 309 307 307 307 306 306 306 306 305 304 303 303 304 304 304 303 303 303 301 298 295 293 294 296 298 297 295 295 300 302 301 301 301 299 297 298 299 299 299 299
331 329 328 328 327 325 325 323 323 322 322 320 318 317 318 318 316 316 316 314 313 311 310 309 307 307 307 306 306 306 306 305 304 304 304 304 304 304 303 303 303 302 302 299 295 296 298 299 299 298 297 299 302 301 301 301 299 297 298 299 299 299 299
330 329 328 327 326 325 324 323 322 321 320 319 318 317 317 317 316 317 315 313 313 311 310 309 308 307 307 306 306 306 305 305 305 304 304 304 304 304 303 303 303 303 304 302 299 299 301 301 301 301 298 297 298 300 301 301 299 297 298 299 299 299 299
329 328 327 327 325 324 323 322 322 321 319 317 316 316 316 316 317 317 315 312 312 311 310 309 308 307 307 306 306 306 305 305 305 304 304 304 304 304 304 303 303 303 304 303 301 301 302 302 302 302 300 297 295 297 301 301 298 297 298 299 299 299 299
329 328 327 327 326 325 324 323 322 320 319 318 317 316 316 315 316 316 314 312 311 310 310 309 308 308 307 307 306 305 305 305 305 304 304 304 304 304 304 304 304 303 304 304 303 302 302 302 302 301 302 299 294 295 300 300 298 297 299 299 299 299 299
329 327 327 327 327 325 323 322 321 319 318 318 317 315 314 315 315 314 313 311 311 310 310 309 308 308 307 307 306 305 305 305 305 304 304 305 304 304 304 304 304 304 304 304 304 303 303 302 302 301 302 299 294 294 297 298 298 298 299 299 299 299 299
328 327 328 329 327 324 323 321 318 317 317 317 316 314 314 314 313 312 311 311 310 310 310 309 308 307 307 306 305 304 305 306 305 305 305 305 305 304 303 304 305 305 305 304 304 304 303 302 302 302 300 297 293 293 295 297 298 299 299 299 299 299 299
328 327 328 327 325 323 322 320 317 317 317 316 315 314 313 312 311 310 310 310 309 309 310 309 308 307 307 306 304 304 305 305 305 305 306 305 304 303 303 305 305 305 305 304 304 304 303 303 302 302 301 297 294 293 294 296 298 299 299 299 299 299 300
328 327 327 325 323 322 320 318 316 317 316 314 313 312 311 310 311 311 310 309 309 309 309 309 309 307 306 305 304 305 305 305 305 305 306 305 304 303 304 305 306 306 305 304 304 304 303 303 302 301 302 299 295 293 294 295 297 298 299 299 299 299 299
327 326 325 324 323 321 318 316 316 316 315 313 311 310 310 310 311 310 309 308 308 308 309 309 308 307 306 305 305 305 305 305 305 306 306 305 304 303 305 305 305 305 305 304 304 304 303 303 302 301 301 299 295 293 294 295 296 298 298 299 299 299 299
326 324 322 321 320 318 316 315 314 313 313 312 311 310 310 309 309 308 308 307 307 307 308 308 307 307 307 306 305 305 305 305 305 306 306 305 304 304 305 305 305 305 304 304 304 304 304 303 303 302 300 297 294 293 294 295 296 297 298 299 299 299 299